Time,TemperatureF,DewpointF,PressureIn,WindDirection,WindDirectionDegrees,WindSpeedMPH,WindSpeedGustMPH,Humidity,HourlyPrecipIn,Conditions,Clouds,dailyrainin,SoftwareType,DateUTC
2013-06-27 00:01:00,70.8,69.6,29.71,NNW,329,0.0,3.0,96,0.00,,---,0.00,VWS V14.00,2013-06-27 04:01:00,
2013-06-27 00:02:00,70.7,69.5,29.71,NNW,329,0.0,3.0,96,0.00,,---,0.00,VWS V14.00,2013-06-27 04:02:00,
2013-06-27 00:03:00,70.7,69.5,29.71,NNW,329,0.0,3.0,96,0.00,,---,0.00,VWS V14.00,2013-06-27 04:03:00,
2013-06-27 00:05:00,70.7,69.5,29.71,NNW,329,0.0,3.0,96,0.00,,---,0.00,VWS V14.00,2013-06-27 04:05:00,
2013-06-27 00:06:00,70.6,69.4,29.70,NNW,329,0.0,3.0,96,0.00,,---,0.00,VWS V14.00,2013-06-27 04:06:00,
2013-06-27 00:07:00,70.7,69.5,29.70,NNW,329,0.0,3.0,96,0.00,,---,0.00,VWS V14.00,2013-06-27 04:07:00,
2013-06-27 00:09:00,70.6,69.4,29.70,NNW,329,0.0,3.0,96,0.00,,---,0.00,VWS V14.00,2013-06-27 04:09:00,
2013-06-27 00:11:00,70.6,69.4,29.70,NNW,329,0.0,3.0,96,0.00,,---,0.00,VWS V14.00,2013-06-27 04:11:00,
2013-06-27 00:12:00,70.6,69.4,29.70,NNW,329,0.0,3.0,96,0.00,,---,0.00,VWS V14.00,2013-06-27 04:12:00,
2013-06-27 00:13:00,70.6,69.4,29.70,NNW,329,0.0,3.0,96,0.00,,---,0.00,VWS V14.00,2013-06-27 04:13:00,
2013-06-27 00:14:00,70.6,69.4,29.70,NNW,329,0.0,3.0,96,0.00,,---,0.00,VWS V14.00,2013-06-27 04:14:00,
2013-06-27 00:17:00,70.6,69.4,29.70,NNW,329,0.0,3.0,96,0.00,,---,0.00,VWS V14.00,2013-06-27 04:17:00,
2013-06-27 00:18:00,70.6,69.4,29.70,NNW,329,0.0,3.0,96,0.00,,---,0.00,VWS V14.00,2013-06-27 04:18:00,
2013-06-27 00:20:00,70.6,69.4,29.70,NNW,329,0.0,3.0,96,0.00,,---,0.00,VWS V14.00,2013-06-27 04:20:00,
2013-06-27 00:22:00,70.6,69.4,29.70,NNW,329,0.0,3.0,96,0.00,,---,0.00,VWS V14.00,2013-06-27 04:22:00,
2013-06-27 00:25:00,70.6,69.4,29.70,NNW,329,0.0,3.0,96,0.00,,---,0.00,VWS V14.00,2013-06-27 04:25:00,
2013-06-27 00:26:00,70.6,69.4,29.70,NNW,329,0.0,3.0,96,0.00,,---,0.00,VWS V14.00,2013-06-27 04:26:00,
2013-06-27 00:27:00,70.6,69.4,29.70,NNW,329,0.0,3.0,96,0.00,,---,0.00,VWS V14.00,2013-06-27 04:27:00,
2013-06-27 00:28:00,70.6,69.4,29.70,NNW,329,0.0,3.0,96,0.00,,---,0.00,VWS V14.00,2013-06-27 04:28:00,
2013-06-27 00:31:00,70.6,69.4,29.69,NNW,329,3.0,3.0,96,0.00,,---,0.00,VWS V14.00,2013-06-27 04:31:00,
2013-06-27 00:32:00,70.6,69.4,29.69,NNW,329,3.0,4.0,96,0.00,,---,0.00,VWS V14.00,2013-06-27 04:32:00,
2013-06-27 00:33:00,70.6,69.4,29.69,NNW,329,1.0,4.0,96,0.00,,---,0.00,VWS V14.00,2013-06-27 04:33:00,
2013-06-27 00:36:00,70.7,69.5,29.69,NNW,329,3.0,4.0,96,0.00,,---,0.00,VWS V14.00,2013-06-27 04:36:00,
2013-06-27 00:37:00,70.7,69.5,29.69,NNW,329,2.0,4.0,96,0.00,,---,0.00,VWS V14.00,2013-06-27 04:37:00,
2013-06-27 00:39:00,70.7,69.5,29.69,NNW,329,2.0,4.0,96,0.00,,---,0.00,VWS V14.00,2013-06-27 04:39:00,
2013-06-27 00:41:00,70.7,69.5,29.69,NNW,329,2.0,4.0,96,0.00,,---,0.00,VWS V14.00,2013-06-27 04:41:00,
2013-06-27 00:43:00,70.7,69.5,29.69,WNW,301,2.0,5.0,96,0.00,,---,0.00,VWS V14.00,2013-06-27 04:43:00,
2013-06-27 00:45:00,70.7,69.5,29.69,WNW,300,0.0,5.0,96,0.00,,---,0.00,VWS V14.00,2013-06-27 04:45:00,
2013-06-27 00:47:00,70.7,69.5,29.69,WNW,299,0.0,5.0,96,0.00,,---,0.00,VWS V14.00,2013-06-27 04:47:00,
2013-06-27 00:48:00,70.7,69.5,29.69,WNW,300,0.0,5.0,96,0.00,,---,0.00,VWS V14.00,2013-06-27 04:48:00,
2013-06-27 00:49:00,70.7,69.5,29.69,WNW,299,0.0,5.0,96,0.00,,---,0.00,VWS V14.00,2013-06-27 04:49:00,
2013-06-27 00:53:00,70.6,69.4,29.69,WNW,300,0.0,5.0,96,0.00,,---,0.00,VWS V14.00,2013-06-27 04:53:00,
2013-06-27 00:54:00,70.6,69.4,29.69,WNW,300,0.0,5.0,96,0.00,,---,0.00,VWS V14.00,2013-06-27 04:54:00,
2013-06-27 00:58:00,70.6,69.4,29.69,WNW,300,0.0,5.0,96,0.00,,---,0.00,VWS V14.00,2013-06-27 04:58:00,
2013-06-27 00:59:00,70.6,69.4,29.68,WNW,300,0.0,0.0,96,0.00,,---,0.00,VWS V14.00,2013-06-27 04:59:00,
2013-06-27 01:00:00,70.6,69.4,29.68,WNW,299,0.0,0.0,96,0.00,,---,0.00,VWS V14.00,2013-06-27 05:00:00,
2013-06-27 01:01:00,70.6,69.4,29.68,WNW,300,0.0,1.0,96,0.00,,---,0.00,VWS V14.00,2013-06-27 05:01:00,
2013-06-27 01:03:00,70.6,69.4,29.68,WNW,300,0.0,1.0,96,0.00,,---,0.00,VWS V14.00,2013-06-27 05:03:00,
2013-06-27 01:05:00,70.6,69.4,29.68,WNW,300,0.0,1.0,96,0.00,,---,0.00,VWS V14.00,2013-06-27 05:05:00,
2013-06-27 01:06:00,70.6,69.4,29.68,WNW,299,0.0,1.0,96,0.00,,---,0.00,VWS V14.00,2013-06-27 05:06:00,
2013-06-27 01:07:00,70.6,69.4,29.68,WNW,299,0.0,1.0,96,0.00,,---,0.00,VWS V14.00,2013-06-27 05:07:00,
2013-06-27 01:09:00,70.6,69.4,29.68,WNW,298,1.0,4.0,96,0.00,,---,0.00,VWS V14.00,2013-06-27 05:09:00,
2013-06-27 01:11:00,70.6,69.4,29.68,WNW,297,2.0,4.0,96,0.00,,---,0.00,VWS V14.00,2013-06-27 05:11:00,
2013-06-27 01:12:00,70.6,69.4,29.68,WNW,296,0.0,4.0,96,0.00,,---,0.00,VWS V14.00,2013-06-27 05:12:00,
2013-06-27 01:13:00,70.6,69.4,29.68,WNW,294,3.0,5.0,96,0.00,,---,0.00,VWS V14.00,2013-06-27 05:13:00,
2013-06-27 01:16:00,70.6,69.4,29.68,WNW,294,0.0,5.0,96,0.00,,---,0.00,VWS V14.00,2013-06-27 05:16:00,
2013-06-27 01:18:00,70.6,69.4,29.68,WNW,294,0.0,5.0,96,0.00,,---,0.00,VWS V14.00,2013-06-27 05:18:00,
2013-06-27 01:19:00,70.5,69.3,29.68,WNW,294,0.0,5.0,96,0.00,,---,0.00,VWS V14.00,2013-06-27 05:19:00,
2013-06-27 01:20:00,70.5,69.3,29.68,WNW,294,0.0,5.0,96,0.00,,---,0.00,VWS V14.00,2013-06-27 05:20:00,
2013-06-27 01:21:00,70.5,69.3,29.68,WNW,294,0.0,5.0,96,0.00,,---,0.00,VWS V14.00,2013-06-27 05:21:00,
2013-06-27 01:24:00,70.5,69.3,29.69,WNW,294,3.0,5.0,96,0.00,,---,0.00,VWS V14.00,2013-06-27 05:24:00,
2013-06-27 01:25:00,70.5,69.3,29.69,WNW,294,3.0,5.0,96,0.00,,---,0.00,VWS V14.00,2013-06-27 05:25:00,
2013-06-27 01:26:00,70.5,69.3,29.69,WNW,294,3.0,5.0,96,0.00,,---,0.00,VWS V14.00,2013-06-27 05:26:00,
2013-06-27 01:28:00,70.6,69.4,29.70,WNW,295,3.0,4.0,96,0.00,,---,0.00,VWS V14.00,2013-06-27 05:28:00,
2013-06-27 01:29:00,70.6,69.4,29.70,WNW,296,3.0,6.0,96,0.00,,---,0.00,VWS V14.00,2013-06-27 05:29:00,
2013-06-27 01:31:00,70.6,69.4,29.70,WNW,296,4.0,6.0,96,0.00,,---,0.00,VWS V14.00,2013-06-27 05:31:00,
2013-06-27 01:32:00,70.5,69.3,29.70,WNW,298,6.0,6.0,96,0.00,,---,0.00,VWS V14.00,2013-06-27 05:32:00,
2013-06-27 01:35:00,70.5,69.3,29.69,WNW,298,0.0,8.0,96,0.00,,---,0.00,VWS V14.00,2013-06-27 05:35:00,
2013-06-27 01:36:00,70.5,69.3,29.69,WNW,298,2.0,8.0,96,0.00,,---,0.00,VWS V14.00,2013-06-27 05:36:00,
2013-06-27 01:37:00,70.4,69.2,29.69,WNW,298,0.0,8.0,96,0.00,,---,0.00,VWS V14.00,2013-06-27 05:37:00,
2013-06-27 01:40:00,70.4,69.2,29.68,WNW,298,0.0,8.0,96,0.00,,---,0.00,VWS V14.00,2013-06-27 05:40:00,
2013-06-27 01:41:00,70.4,69.2,29.69,WNW,298,4.0,8.0,96,0.00,,---,0.00,VWS V14.00,2013-06-27 05:41:00,
2013-06-27 01:42:00,70.4,69.2,29.69,WNW,298,3.0,8.0,96,0.00,,---,0.00,VWS V14.00,2013-06-27 05:42:00,
2013-06-27 01:43:00,70.4,69.2,29.69,WNW,298,2.0,8.0,96,0.00,,---,0.00,VWS V14.00,2013-06-27 05:43:00,
2013-06-27 01:45:00,70.4,69.2,29.69,WNW,298,3.0,8.0,96,0.00,,---,0.00,VWS V14.00,2013-06-27 05:45:00,
2013-06-27 01:49:00,70.3,69.1,29.69,WNW,298,1.0,8.0,96,0.00,,---,0.00,VWS V14.00,2013-06-27 05:49:00,
2013-06-27 01:50:00,70.3,69.1,29.69,WNW,298,3.0,8.0,96,0.00,,---,0.00,VWS V14.00,2013-06-27 05:50:00,
2013-06-27 01:51:00,70.3,69.1,29.69,WNW,298,2.0,8.0,96,0.00,,---,0.00,VWS V14.00,2013-06-27 05:51:00,
2013-06-27 01:52:00,70.3,69.1,29.69,WNW,298,2.0,8.0,96,0.00,,---,0.00,VWS V14.00,2013-06-27 05:52:00,
2013-06-27 01:54:00,70.3,69.1,29.69,WNW,298,1.0,8.0,96,0.00,,---,0.00,VWS V14.00,2013-06-27 05:54:00,
2013-06-27 01:55:00,70.3,69.1,29.69,WNW,298,2.0,8.0,96,0.00,,---,0.00,VWS V14.00,2013-06-27 05:55:00,
2013-06-27 01:56:00,70.3,69.1,29.69,WNW,298,0.0,8.0,96,0.00,,---,0.00,VWS V14.00,2013-06-27 05:56:00,
2013-06-27 01:57:00,70.3,69.1,29.69,WNW,298,0.0,8.0,96,0.00,,---,0.00,VWS V14.00,2013-06-27 05:57:00,
2013-06-27 01:58:00,70.3,69.1,29.69,WNW,298,0.0,8.0,96,0.00,,---,0.00,VWS V14.00,2013-06-27 05:58:00,
2013-06-27 01:59:00,70.3,69.1,29.69,WNW,298,2.0,3.0,96,0.00,,---,0.00,VWS V14.00,2013-06-27 05:59:00,
2013-06-27 02:00:00,70.2,69.0,29.68,WNW,298,0.0,3.0,96,0.00,,---,0.00,VWS V14.00,2013-06-27 06:00:00,
2013-06-27 02:02:00,70.2,69.0,29.68,WNW,298,0.0,3.0,96,0.00,,---,0.00,VWS V14.00,2013-06-27 06:02:00,
2013-06-27 02:04:00,70.1,68.9,29.68,WNW,298,0.0,3.0,96,0.00,,---,0.00,VWS V14.00,2013-06-27 06:04:00,
2013-06-27 02:07:00,70.1,68.9,29.68,WNW,298,0.0,3.0,96,0.00,,---,0.00,VWS V14.00,2013-06-27 06:07:00,
2013-06-27 02:08:00,70.0,68.8,29.68,WNW,298,0.0,3.0,96,0.00,,---,0.00,VWS V14.00,2013-06-27 06:08:00,
2013-06-27 02:09:00,70.0,68.8,29.68,WNW,298,0.0,3.0,96,0.00,,---,0.00,VWS V14.00,2013-06-27 06:09:00,
2013-06-27 02:11:00,70.0,68.8,29.67,WNW,298,0.0,3.0,96,0.00,,---,0.00,VWS V14.00,2013-06-27 06:11:00,
2013-06-27 02:13:00,70.0,68.8,29.67,WNW,298,0.0,3.0,96,0.00,,---,0.00,VWS V14.00,2013-06-27 06:13:00,
2013-06-27 02:15:00,70.0,68.8,29.68,WNW,298,0.0,3.0,96,0.00,,---,0.00,VWS V14.00,2013-06-27 06:15:00,
2013-06-27 02:16:00,69.9,68.7,29.68,WNW,298,0.0,3.0,96,0.00,,---,0.00,VWS V14.00,2013-06-27 06:16:00,
2013-06-27 02:17:00,69.9,68.7,29.68,WNW,298,0.0,3.0,96,0.00,,---,0.00,VWS V14.00,2013-06-27 06:17:00,
2013-06-27 02:20:00,69.9,68.7,29.67,WNW,298,0.0,3.0,96,0.00,,---,0.00,VWS V14.00,2013-06-27 06:20:00,
2013-06-27 02:21:00,69.9,68.7,29.67,WNW,298,0.0,3.0,96,0.00,,---,0.00,VWS V14.00,2013-06-27 06:21:00,
2013-06-27 02:22:00,69.9,68.7,29.67,WNW,298,0.0,3.0,96,0.00,,---,0.00,VWS V14.00,2013-06-27 06:22:00,
2013-06-27 02:23:00,69.9,68.7,29.67,WNW,298,0.0,3.0,96,0.00,,---,0.00,VWS V14.00,2013-06-27 06:23:00,
2013-06-27 02:26:00,69.8,68.6,29.67,WNW,298,0.0,3.0,96,0.00,,---,0.00,VWS V14.00,2013-06-27 06:26:00,
2013-06-27 02:28:00,69.8,68.6,29.67,WNW,298,0.0,3.0,96,0.00,,---,0.00,VWS V14.00,2013-06-27 06:28:00,
2013-06-27 02:29:00,69.8,68.6,29.67,WNW,298,0.0,0.0,96,0.00,,---,0.00,VWS V14.00,2013-06-27 06:29:00,
2013-06-27 02:31:00,69.8,68.6,29.67,WNW,298,0.0,0.0,96,0.00,,---,0.00,VWS V14.00,2013-06-27 06:31:00,
2013-06-27 02:33:00,69.7,68.5,29.67,WNW,298,0.0,0.0,96,0.00,,---,0.00,VWS V14.00,2013-06-27 06:33:00,
2013-06-27 02:34:00,69.7,68.5,29.67,WNW,298,0.0,0.0,96,0.00,,---,0.00,VWS V14.00,2013-06-27 06:34:00,
2013-06-27 02:35:00,69.7,68.5,29.67,WNW,298,0.0,0.0,96,0.00,,---,0.00,VWS V14.00,2013-06-27 06:35:00,
2013-06-27 02:36:00,69.6,68.4,29.67,WNW,298,0.0,0.0,96,0.00,,---,0.00,VWS V14.00,2013-06-27 06:36:00,
2013-06-27 02:38:00,69.6,68.4,29.67,WNW,298,0.0,0.0,96,0.00,,---,0.00,VWS V14.00,2013-06-27 06:38:00,
2013-06-27 02:39:00,69.6,68.4,29.67,WNW,298,0.0,0.0,96,0.00,,---,0.00,VWS V14.00,2013-06-27 06:39:00,
2013-06-27 02:40:00,69.5,68.3,29.67,WNW,298,0.0,0.0,96,0.00,,---,0.00,VWS V14.00,2013-06-27 06:40:00,
2013-06-27 02:42:00,69.5,68.3,29.67,WNW,298,0.0,0.0,96,0.00,,---,0.00,VWS V14.00,2013-06-27 06:42:00,
2013-06-27 02:43:00,69.5,68.3,29.67,WNW,298,0.0,0.0,96,0.00,,---,0.00,VWS V14.00,2013-06-27 06:43:00,
2013-06-27 02:44:00,69.5,68.3,29.66,WNW,298,0.0,0.0,96,0.00,,---,0.00,VWS V14.00,2013-06-27 06:44:00,
2013-06-27 02:45:00,69.4,68.2,29.66,WNW,298,0.0,0.0,96,0.00,,---,0.00,VWS V14.00,2013-06-27 06:45:00,
2013-06-27 02:46:00,69.4,68.2,29.66,WNW,298,0.0,0.0,96,0.00,,---,0.00,VWS V14.00,2013-06-27 06:46:00,
2013-06-27 02:49:00,69.4,68.2,29.67,WNW,298,0.0,0.0,96,0.00,,---,0.00,VWS V14.00,2013-06-27 06:49:00,
2013-06-27 02:50:00,69.4,68.2,29.67,WNW,298,0.0,0.0,96,0.00,,---,0.00,VWS V14.00,2013-06-27 06:50:00,
2013-06-27 02:51:00,69.4,68.2,29.66,WNW,298,0.0,0.0,96,0.00,,---,0.00,VWS V14.00,2013-06-27 06:51:00,
2013-06-27 02:55:00,69.4,68.2,29.66,WNW,298,0.0,0.0,96,0.00,,---,0.00,VWS V14.00,2013-06-27 06:55:00,
2013-06-27 02:56:00,69.4,68.2,29.67,WNW,298,0.0,0.0,96,0.00,,---,0.00,VWS V14.00,2013-06-27 06:56:00,
2013-06-27 03:01:00,69.3,68.1,29.67,WNW,298,0.0,0.0,96,0.00,,---,0.00,VWS V14.00,2013-06-27 07:01:00,
2013-06-27 03:02:00,69.3,68.1,29.67,WNW,298,0.0,0.0,96,0.00,,---,0.00,VWS V14.00,2013-06-27 07:02:00,
2013-06-27 03:03:00,69.3,68.1,29.67,WNW,298,0.0,0.0,96,0.00,,---,0.00,VWS V14.00,2013-06-27 07:03:00,
2013-06-27 03:06:00,69.2,68.0,29.66,WNW,298,0.0,0.0,96,0.00,,---,0.00,VWS V14.00,2013-06-27 07:06:00,
2013-06-27 03:08:00,69.2,68.0,29.67,WNW,298,0.0,0.0,96,0.00,,---,0.00,VWS V14.00,2013-06-27 07:08:00,
2013-06-27 03:09:00,69.1,67.9,29.67,WNW,298,0.0,0.0,96,0.00,,---,0.00,VWS V14.00,2013-06-27 07:09:00,
2013-06-27 03:10:00,69.1,67.9,29.67,WNW,298,0.0,0.0,96,0.00,,---,0.00,VWS V14.00,2013-06-27 07:10:00,
2013-06-27 03:11:00,69.1,67.9,29.67,WNW,298,0.0,0.0,96,0.00,,---,0.00,VWS V14.00,2013-06-27 07:11:00,
2013-06-27 03:13:00,69.1,67.9,29.67,WNW,298,0.0,0.0,96,0.00,,---,0.00,VWS V14.00,2013-06-27 07:13:00,
2013-06-27 03:14:00,69.1,67.9,29.67,WNW,298,0.0,0.0,96,0.00,,---,0.00,VWS V14.00,2013-06-27 07:14:00,
2013-06-27 03:15:00,69.1,67.9,29.67,WNW,298,0.0,0.0,96,0.00,,---,0.00,VWS V14.00,2013-06-27 07:15:00,
2013-06-27 03:17:00,69.1,67.9,29.67,WNW,298,0.0,0.0,96,0.00,,---,0.00,VWS V14.00,2013-06-27 07:17:00,
2013-06-27 03:19:00,69.1,67.9,29.67,WNW,298,0.0,0.0,96,0.00,,---,0.00,VWS V14.00,2013-06-27 07:19:00,
2013-06-27 03:20:00,69.1,67.9,29.67,WNW,298,0.0,0.0,96,0.00,,---,0.00,VWS V14.00,2013-06-27 07:20:00,
2013-06-27 03:21:00,69.1,67.9,29.67,WNW,298,0.0,0.0,96,0.00,,---,0.00,VWS V14.00,2013-06-27 07:21:00,
2013-06-27 03:24:00,69.1,67.9,29.67,WNW,298,0.0,0.0,96,0.00,,---,0.00,VWS V14.00,2013-06-27 07:24:00,
2013-06-27 03:25:00,69.1,67.9,29.67,WNW,298,0.0,0.0,96,0.00,,---,0.00,VWS V14.00,2013-06-27 07:25:00,
2013-06-27 03:27:00,69.1,67.9,29.67,WNW,298,0.0,0.0,96,0.00,,---,0.00,VWS V14.00,2013-06-27 07:27:00,
2013-06-27 03:28:00,69.1,67.9,29.67,WNW,298,0.0,0.0,96,0.00,,---,0.00,VWS V14.00,2013-06-27 07:28:00,
2013-06-27 03:30:00,69.1,67.9,29.67,WNW,298,0.0,0.0,96,0.00,,---,0.00,VWS V14.00,2013-06-27 07:30:00,
2013-06-27 03:33:00,69.1,67.9,29.68,WNW,298,0.0,0.0,96,0.00,,---,0.00,VWS V14.00,2013-06-27 07:33:00,
2013-06-27 03:34:00,69.1,67.9,29.67,WNW,298,0.0,0.0,96,0.00,,---,0.00,VWS V14.00,2013-06-27 07:34:00,
2013-06-27 03:36:00,69.1,67.9,29.67,WNW,298,0.0,0.0,96,0.00,,---,0.00,VWS V14.00,2013-06-27 07:36:00,
2013-06-27 03:38:00,69.1,67.9,29.68,WNW,298,0.0,0.0,96,0.00,,---,0.00,VWS V14.00,2013-06-27 07:38:00,
2013-06-27 03:39:00,69.1,67.9,29.68,WNW,298,0.0,0.0,96,0.00,,---,0.00,VWS V14.00,2013-06-27 07:39:00,
2013-06-27 03:40:00,69.2,68.0,29.68,WNW,298,0.0,0.0,96,0.00,,---,0.00,VWS V14.00,2013-06-27 07:40:00,
2013-06-27 03:41:00,69.2,68.0,29.68,WNW,298,0.0,0.0,96,0.00,,---,0.00,VWS V14.00,2013-06-27 07:41:00,
2013-06-27 03:42:00,69.2,68.0,29.68,WNW,298,0.0,0.0,96,0.00,,---,0.00,VWS V14.00,2013-06-27 07:42:00,
2013-06-27 03:45:00,69.2,68.0,29.68,WNW,298,0.0,0.0,96,0.00,,---,0.00,VWS V14.00,2013-06-27 07:45:00,
2013-06-27 03:46:00,69.2,68.0,29.68,WNW,298,0.0,0.0,96,0.00,,---,0.00,VWS V14.00,2013-06-27 07:46:00,
2013-06-27 03:47:00,69.2,68.0,29.68,WNW,298,0.0,0.0,96,0.00,,---,0.00,VWS V14.00,2013-06-27 07:47:00,
2013-06-27 03:49:00,69.2,68.0,29.68,WNW,298,0.0,0.0,96,0.00,,---,0.00,VWS V14.00,2013-06-27 07:49:00,
2013-06-27 03:52:00,69.2,68.0,29.68,WNW,298,0.0,0.0,96,0.00,,---,0.00,VWS V14.00,2013-06-27 07:52:00,
2013-06-27 03:53:00,69.2,68.0,29.68,WNW,298,0.0,0.0,96,0.00,,---,0.00,VWS V14.00,2013-06-27 07:53:00,
2013-06-27 03:54:00,69.2,68.0,29.68,WNW,298,0.0,0.0,96,0.00,,---,0.00,VWS V14.00,2013-06-27 07:54:00,
2013-06-27 03:57:00,69.2,68.0,29.68,WNW,298,0.0,0.0,96,0.00,,---,0.00,VWS V14.00,2013-06-27 07:57:00,
2013-06-27 03:58:00,69.2,68.0,29.68,WNW,298,0.0,0.0,96,0.00,,---,0.00,VWS V14.00,2013-06-27 07:58:00,
2013-06-27 03:59:00,69.2,68.0,29.68,WNW,298,0.0,0.0,96,0.00,,---,0.00,VWS V14.00,2013-06-27 07:59:00,
2013-06-27 04:00:00,69.2,68.0,29.67,WNW,298,0.0,0.0,96,0.00,,---,0.00,VWS V14.00,2013-06-27 08:00:00,
2013-06-27 04:02:00,69.2,68.0,29.67,WNW,298,0.0,0.0,96,0.00,,---,0.00,VWS V14.00,2013-06-27 08:02:00,
2013-06-27 04:03:00,69.2,68.0,29.67,WNW,298,0.0,0.0,96,0.00,,---,0.00,VWS V14.00,2013-06-27 08:03:00,
2013-06-27 04:04:00,69.2,68.0,29.68,WNW,298,0.0,0.0,96,0.00,,---,0.00,VWS V14.00,2013-06-27 08:04:00,
2013-06-27 04:05:00,69.2,68.0,29.68,WNW,298,0.0,0.0,96,0.00,,---,0.00,VWS V14.00,2013-06-27 08:05:00,
2013-06-27 04:06:00,69.2,68.0,29.68,WNW,298,0.0,0.0,96,0.00,,---,0.00,VWS V14.00,2013-06-27 08:06:00,
2013-06-27 04:09:00,69.2,68.0,29.68,WNW,298,0.0,0.0,96,0.00,,---,0.00,VWS V14.00,2013-06-27 08:09:00,
2013-06-27 04:10:00,69.2,68.0,29.68,WNW,298,0.0,0.0,96,0.00,,---,0.00,VWS V14.00,2013-06-27 08:10:00,
2013-06-27 04:11:00,69.3,68.1,29.68,WNW,298,0.0,0.0,96,0.00,,---,0.00,VWS V14.00,2013-06-27 08:11:00,
2013-06-27 04:12:00,69.3,68.1,29.68,WNW,298,0.0,0.0,96,0.00,,---,0.00,VWS V14.00,2013-06-27 08:12:00,
2013-06-27 04:14:00,69.3,68.1,29.68,WNW,298,0.0,0.0,96,0.00,,---,0.00,VWS V14.00,2013-06-27 08:14:00,
2013-06-27 04:17:00,69.3,68.1,29.68,WNW,298,0.0,0.0,96,0.00,,---,0.00,VWS V14.00,2013-06-27 08:17:00,
2013-06-27 04:18:00,69.3,68.1,29.67,WNW,298,0.0,0.0,96,0.00,,---,0.00,VWS V14.00,2013-06-27 08:18:00,
2013-06-27 04:20:00,69.3,68.1,29.67,WNW,298,0.0,0.0,96,0.00,,---,0.00,VWS V14.00,2013-06-27 08:20:00,
2013-06-27 04:22:00,69.4,68.2,29.67,WNW,298,0.0,0.0,96,0.00,,---,0.00,VWS V14.00,2013-06-27 08:22:00,
2013-06-27 04:23:00,69.4,68.2,29.67,WNW,298,0.0,0.0,96,0.00,,---,0.00,VWS V14.00,2013-06-27 08:23:00,
2013-06-27 04:24:00,69.4,68.2,29.67,WNW,298,0.0,0.0,96,0.00,,---,0.00,VWS V14.00,2013-06-27 08:24:00,
2013-06-27 04:25:00,69.4,68.2,29.67,WNW,298,0.0,0.0,96,0.00,,---,0.00,VWS V14.00,2013-06-27 08:25:00,
2013-06-27 04:28:00,69.4,68.2,29.68,WNW,298,0.0,0.0,96,0.00,,---,0.00,VWS V14.00,2013-06-27 08:28:00,
2013-06-27 04:29:00,69.4,68.2,29.68,WNW,298,0.0,0.0,96,0.00,,---,0.00,VWS V14.00,2013-06-27 08:29:00,
2013-06-27 04:31:00,69.4,68.2,29.68,WNW,298,0.0,0.0,96,0.00,,---,0.00,VWS V14.00,2013-06-27 08:31:00,
2013-06-27 04:33:00,69.4,68.2,29.67,WNW,298,0.0,0.0,96,0.00,,---,0.00,VWS V14.00,2013-06-27 08:33:00,
2013-06-27 04:35:00,69.4,68.2,29.67,WNW,298,0.0,0.0,96,0.00,,---,0.00,VWS V14.00,2013-06-27 08:35:00,
2013-06-27 04:36:00,69.4,68.2,29.67,WNW,298,0.0,0.0,96,0.00,,---,0.00,VWS V14.00,2013-06-27 08:36:00,
2013-06-27 04:38:00,69.4,68.2,29.67,WNW,298,0.0,0.0,96,0.00,,---,0.00,VWS V14.00,2013-06-27 08:38:00,
2013-06-27 04:40:00,69.5,68.3,29.67,WNW,298,0.0,0.0,96,0.00,,---,0.00,VWS V14.00,2013-06-27 08:40:00,
2013-06-27 04:41:00,69.5,68.3,29.67,WNW,298,0.0,0.0,96,0.00,,---,0.00,VWS V14.00,2013-06-27 08:41:00,
2013-06-27 04:42:00,69.5,68.3,29.67,WNW,298,0.0,0.0,96,0.00,,---,0.00,VWS V14.00,2013-06-27 08:42:00,
2013-06-27 04:43:00,69.5,68.3,29.68,WNW,298,0.0,0.0,96,0.00,,---,0.00,VWS V14.00,2013-06-27 08:43:00,
2013-06-27 04:44:00,69.5,68.3,29.68,WNW,298,0.0,0.0,96,0.00,,---,0.00,VWS V14.00,2013-06-27 08:44:00,
2013-06-27 04:45:00,69.5,68.3,29.68,WNW,298,0.0,0.0,96,0.00,,---,0.00,VWS V14.00,2013-06-27 08:45:00,
2013-06-27 04:47:00,69.5,68.3,29.68,WNW,298,0.0,0.0,96,0.00,,---,0.00,VWS V14.00,2013-06-27 08:47:00,
2013-06-27 04:50:00,69.5,68.3,29.68,WNW,298,0.0,0.0,96,0.00,,---,0.00,VWS V14.00,2013-06-27 08:50:00,
2013-06-27 04:51:00,69.5,68.3,29.68,WNW,298,2.0,3.0,96,0.00,,---,0.00,VWS V14.00,2013-06-27 08:51:00,
2013-06-27 04:53:00,69.5,68.3,29.68,WNW,298,2.0,3.0,96,0.00,,---,0.00,VWS V14.00,2013-06-27 08:53:00,
2013-06-27 04:55:00,69.5,68.3,29.68,WNW,298,3.0,3.0,96,0.00,,---,0.00,VWS V14.00,2013-06-27 08:55:00,
2013-06-27 04:56:00,69.4,68.2,29.68,WNW,298,2.0,4.0,96,0.00,,---,0.00,VWS V14.00,2013-06-27 08:56:00,
2013-06-27 04:58:00,69.4,68.2,29.68,WNW,298,1.0,2.0,96,0.00,,---,0.00,VWS V14.00,2013-06-27 08:58:00,
2013-06-27 04:59:00,69.4,68.2,29.68,WNW,298,3.0,3.0,96,0.00,,---,0.00,VWS V14.00,2013-06-27 08:59:00,
2013-06-27 05:00:00,69.4,68.2,29.68,WNW,298,2.0,3.0,96,0.00,,---,0.00,VWS V14.00,2013-06-27 09:00:00,
2013-06-27 05:01:00,69.4,68.2,29.68,WNW,298,1.0,3.0,96,0.00,,---,0.00,VWS V14.00,2013-06-27 09:01:00,
2013-06-27 05:04:00,69.3,68.1,29.68,WNW,298,3.0,3.0,96,0.00,,---,0.00,VWS V14.00,2013-06-27 09:04:00,
2013-06-27 05:05:00,69.3,68.1,29.68,WNW,298,3.0,4.0,96,0.00,,---,0.00,VWS V14.00,2013-06-27 09:05:00,
2013-06-27 05:06:00,69.3,68.1,29.68,WNW,298,2.0,4.0,96,0.00,,---,0.00,VWS V14.00,2013-06-27 09:06:00,
2013-06-27 05:07:00,69.2,68.0,29.68,WNW,298,2.0,4.0,96,0.00,,---,0.00,VWS V14.00,2013-06-27 09:07:00,
2013-06-27 05:09:00,69.2,68.0,29.68,WNW,298,2.0,4.0,96,0.00,,---,0.00,VWS V14.00,2013-06-27 09:09:00,
2013-06-27 05:11:00,69.1,67.9,29.68,WNW,298,1.0,4.0,96,0.00,,---,0.00,VWS V14.00,2013-06-27 09:11:00,
2013-06-27 05:12:00,69.1,67.9,29.68,WNW,298,2.0,4.0,96,0.00,,---,0.00,VWS V14.00,2013-06-27 09:12:00,
2013-06-27 05:13:00,69.1,67.9,29.68,WNW,298,2.0,4.0,96,0.00,,---,0.00,VWS V14.00,2013-06-27 09:13:00,
2013-06-27 05:15:00,69.0,67.8,29.68,WNW,298,3.0,4.0,96,0.00,,---,0.00,VWS V14.00,2013-06-27 09:15:00,
2013-06-27 05:16:00,69.0,67.8,29.68,WNW,298,1.0,4.0,96,0.00,,---,0.00,VWS V14.00,2013-06-27 09:16:00,
2013-06-27 05:17:00,69.0,67.8,29.68,WNW,298,0.0,4.0,96,0.00,,---,0.00,VWS V14.00,2013-06-27 09:17:00,
2013-06-27 05:20:00,69.0,67.8,29.68,WNW,298,0.0,4.0,96,0.00,,---,0.00,VWS V14.00,2013-06-27 09:20:00,
2013-06-27 05:22:00,69.0,67.8,29.68,WNW,298,0.0,4.0,96,0.00,,---,0.00,VWS V14.00,2013-06-27 09:22:00,
2013-06-27 05:23:00,68.9,67.7,29.68,WNW,298,0.0,4.0,96,0.00,,---,0.00,VWS V14.00,2013-06-27 09:23:00,
2013-06-27 05:26:00,68.9,67.7,29.68,WNW,298,0.0,4.0,96,0.00,,---,0.00,VWS V14.00,2013-06-27 09:26:00,
2013-06-27 05:27:00,68.9,67.7,29.68,WNW,298,0.0,4.0,96,0.00,,---,0.00,VWS V14.00,2013-06-27 09:27:00,
2013-06-27 05:28:00,68.9,67.7,29.68,WNW,298,0.0,4.0,96,0.00,,---,0.00,VWS V14.00,2013-06-27 09:28:00,
2013-06-27 05:29:00,68.9,67.7,29.68,WNW,298,0.0,0.0,96,0.00,,---,0.00,VWS V14.00,2013-06-27 09:29:00,
2013-06-27 05:30:00,68.9,67.7,29.68,WNW,298,2.0,4.0,96,0.00,,---,0.00,VWS V14.00,2013-06-27 09:30:00,
2013-06-27 05:32:00,68.8,67.6,29.68,WNW,298,1.0,4.0,96,0.00,,---,0.00,VWS V14.00,2013-06-27 09:32:00,
2013-06-27 05:33:00,68.8,67.6,29.68,WNW,298,1.0,4.0,96,0.00,,---,0.00,VWS V14.00,2013-06-27 09:33:00,
2013-06-27 05:34:00,68.8,67.6,29.68,WNW,298,0.0,4.0,96,0.00,,---,0.00,VWS V14.00,2013-06-27 09:34:00,
2013-06-27 05:36:00,68.8,67.6,29.68,WNW,298,0.0,4.0,96,0.00,,---,0.00,VWS V14.00,2013-06-27 09:36:00,
2013-06-27 05:37:00,68.8,67.6,29.68,WNW,298,0.0,4.0,96,0.00,,---,0.00,VWS V14.00,2013-06-27 09:37:00,
2013-06-27 05:38:00,68.8,67.6,29.68,WNW,298,0.0,4.0,96,0.00,,---,0.00,VWS V14.00,2013-06-27 09:38:00,
2013-06-27 05:39:00,68.8,67.6,29.68,WNW,298,0.0,4.0,96,0.00,,---,0.00,VWS V14.00,2013-06-27 09:39:00,
2013-06-27 05:41:00,68.8,67.6,29.68,WNW,298,0.0,4.0,96,0.00,,---,0.00,VWS V14.00,2013-06-27 09:41:00,
2013-06-27 05:42:00,68.8,67.6,29.68,WNW,298,0.0,4.0,96,0.00,,---,0.00,VWS V14.00,2013-06-27 09:42:00,
2013-06-27 05:43:00,68.7,67.5,29.68,WNW,298,0.0,4.0,96,0.00,,---,0.00,VWS V14.00,2013-06-27 09:43:00,
2013-06-27 05:45:00,68.7,67.5,29.68,WNW,298,0.0,4.0,96,0.00,,---,0.00,VWS V14.00,2013-06-27 09:45:00,
2013-06-27 05:46:00,68.7,67.5,29.68,WNW,298,0.0,4.0,96,0.00,,---,0.00,VWS V14.00,2013-06-27 09:46:00,
2013-06-27 05:47:00,68.7,67.5,29.68,WNW,298,0.0,4.0,96,0.00,,---,0.00,VWS V14.00,2013-06-27 09:47:00,
2013-06-27 05:48:00,68.7,67.5,29.68,WNW,298,0.0,4.0,96,0.00,,---,0.00,VWS V14.00,2013-06-27 09:48:00,
2013-06-27 05:49:00,68.7,67.5,29.68,WNW,298,0.0,4.0,96,0.00,,---,0.00,VWS V14.00,2013-06-27 09:49:00,
2013-06-27 05:51:00,68.7,67.5,29.69,WNW,298,0.0,4.0,96,0.00,,---,0.00,VWS V14.00,2013-06-27 09:51:00,
2013-06-27 05:52:00,68.7,67.5,29.69,WNW,298,1.0,4.0,96,0.00,,---,0.00,VWS V14.00,2013-06-27 09:52:00,
2013-06-27 05:54:00,68.7,67.5,29.69,WNW,298,1.0,4.0,96,0.00,,---,0.00,VWS V14.00,2013-06-27 09:54:00,
2013-06-27 05:56:00,68.6,67.4,29.69,WNW,298,0.0,4.0,96,0.00,,---,0.00,VWS V14.00,2013-06-27 09:56:00,
2013-06-27 05:57:00,68.7,67.8,29.69,WNW,298,0.0,4.0,97,0.00,,---,0.00,VWS V14.00,2013-06-27 09:57:00,
2013-06-27 05:58:00,68.7,67.8,29.69,WNW,298,0.0,4.0,97,0.00,,---,0.00,VWS V14.00,2013-06-27 09:58:00,
2013-06-27 05:59:00,68.7,67.8,29.69,WNW,298,0.0,0.0,97,0.00,,---,0.00,VWS V14.00,2013-06-27 09:59:00,
2013-06-27 06:00:00,68.7,67.8,29.69,WNW,298,0.0,0.0,97,0.00,,---,0.00,VWS V14.00,2013-06-27 10:00:00,
2013-06-27 06:02:00,68.7,67.8,29.69,WNW,298,0.0,0.0,97,0.00,,---,0.00,VWS V14.00,2013-06-27 10:02:00,
2013-06-27 06:04:00,68.6,67.7,29.69,WNW,298,0.0,0.0,97,0.00,,---,0.00,VWS V14.00,2013-06-27 10:04:00,
2013-06-27 06:05:00,68.7,67.8,29.69,WNW,298,0.0,0.0,97,0.00,,---,0.00,VWS V14.00,2013-06-27 10:05:00,
2013-06-27 06:06:00,68.7,67.8,29.69,WNW,298,0.0,0.0,97,0.00,,---,0.00,VWS V14.00,2013-06-27 10:06:00,
2013-06-27 06:09:00,68.7,67.8,29.69,WNW,298,0.0,0.0,97,0.00,,---,0.00,VWS V14.00,2013-06-27 10:09:00,
2013-06-27 06:11:00,68.7,67.8,29.69,WNW,298,0.0,0.0,97,0.00,,---,0.00,VWS V14.00,2013-06-27 10:11:00,
2013-06-27 06:12:00,68.7,67.8,29.69,WNW,298,0.0,0.0,97,0.00,,---,0.00,VWS V14.00,2013-06-27 10:12:00,
2013-06-27 06:13:00,68.7,67.8,29.69,WNW,298,0.0,0.0,97,0.00,,---,0.00,VWS V14.00,2013-06-27 10:13:00,
2013-06-27 06:17:00,68.7,67.8,29.69,WNW,298,0.0,0.0,97,0.00,,---,0.00,VWS V14.00,2013-06-27 10:17:00,
2013-06-27 06:18:00,68.7,67.8,29.69,WNW,298,0.0,0.0,97,0.00,,---,0.00,VWS V14.00,2013-06-27 10:18:00,
2013-06-27 06:19:00,68.7,67.8,29.69,WNW,298,0.0,0.0,97,0.00,,---,0.00,VWS V14.00,2013-06-27 10:19:00,
2013-06-27 06:23:00,68.7,67.8,29.69,WNW,298,0.0,0.0,97,0.00,,---,0.00,VWS V14.00,2013-06-27 10:23:00,
2013-06-27 06:24:00,68.7,67.8,29.69,WNW,298,0.0,0.0,97,0.00,,---,0.00,VWS V14.00,2013-06-27 10:24:00,
2013-06-27 06:25:00,68.7,67.8,29.69,WNW,298,0.0,0.0,97,0.00,,---,0.00,VWS V14.00,2013-06-27 10:25:00,
2013-06-27 06:27:00,68.7,67.8,29.69,WNW,298,0.0,0.0,97,0.00,,---,0.00,VWS V14.00,2013-06-27 10:27:00,
2013-06-27 06:30:00,68.7,67.8,29.69,WNW,298,0.0,0.0,97,0.00,,---,0.00,VWS V14.00,2013-06-27 10:30:00,
2013-06-27 06:31:00,68.7,67.8,29.69,WNW,298,0.0,0.0,97,0.00,,---,0.00,VWS V14.00,2013-06-27 10:31:00,
2013-06-27 06:32:00,68.7,67.8,29.69,WNW,298,0.0,0.0,97,0.00,,---,0.00,VWS V14.00,2013-06-27 10:32:00,
2013-06-27 06:33:00,68.7,67.8,29.69,WNW,298,0.0,0.0,97,0.00,,---,0.00,VWS V14.00,2013-06-27 10:33:00,
2013-06-27 06:37:00,68.8,67.9,29.70,WNW,298,0.0,0.0,97,0.00,,---,0.00,VWS V14.00,2013-06-27 10:37:00,
2013-06-27 06:38:00,68.8,67.9,29.70,WNW,298,0.0,0.0,97,0.00,,---,0.00,VWS V14.00,2013-06-27 10:38:00,
2013-06-27 06:42:00,68.8,67.9,29.70,WNW,298,2.0,3.0,97,0.00,,---,0.00,VWS V14.00,2013-06-27 10:42:00,
2013-06-27 06:43:00,68.8,67.9,29.69,WNW,298,2.0,3.0,97,0.00,,---,0.00,VWS V14.00,2013-06-27 10:43:00,
2013-06-27 06:44:00,68.8,67.9,29.69,WNW,298,2.0,3.0,97,0.00,,---,0.00,VWS V14.00,2013-06-27 10:44:00,
2013-06-27 06:45:00,68.8,67.9,29.69,WNW,298,5.0,5.0,97,0.00,,---,0.00,VWS V14.00,2013-06-27 10:45:00,
2013-06-27 06:46:00,68.8,67.9,29.69,WNW,298,3.0,5.0,97,0.00,,---,0.00,VWS V14.00,2013-06-27 10:46:00,
2013-06-27 06:48:00,68.8,67.9,29.69,WNW,298,1.0,5.0,97,0.00,,---,0.00,VWS V14.00,2013-06-27 10:48:00,
2013-06-27 06:50:00,68.8,67.9,29.69,WNW,298,0.0,5.0,97,0.00,,---,0.00,VWS V14.00,2013-06-27 10:50:00,
2013-06-27 06:53:00,68.9,68.0,29.70,WNW,298,0.0,5.0,97,0.00,,---,0.00,VWS V14.00,2013-06-27 10:53:00,
2013-06-27 06:54:00,68.9,68.0,29.69,WNW,298,2.0,5.0,97,0.00,,---,0.00,VWS V14.00,2013-06-27 10:54:00,
2013-06-27 06:56:00,68.8,67.9,29.70,WNW,298,3.0,5.0,97,0.00,,---,0.00,VWS V14.00,2013-06-27 10:56:00,
2013-06-27 06:58:00,68.8,67.9,29.69,WNW,298,3.0,5.0,97,0.00,,---,0.00,VWS V14.00,2013-06-27 10:58:00,
2013-06-27 06:59:00,68.8,67.9,29.70,WNW,298,3.0,4.0,97,0.00,,---,0.00,VWS V14.00,2013-06-27 10:59:00,
2013-06-27 07:00:00,68.8,67.9,29.70,WNW,298,2.0,4.0,97,0.00,,---,0.00,VWS V14.00,2013-06-27 11:00:00,
2013-06-27 07:01:00,68.8,67.9,29.70,WNW,298,0.0,4.0,97,0.00,,---,0.00,VWS V14.00,2013-06-27 11:01:00,
2013-06-27 07:05:00,68.7,67.8,29.70,WNW,298,4.0,5.0,97,0.00,,---,0.00,VWS V14.00,2013-06-27 11:05:00,
2013-06-27 07:07:00,68.7,67.8,29.70,WNW,298,1.0,5.0,97,0.00,,---,0.00,VWS V14.00,2013-06-27 11:07:00,
2013-06-27 07:08:00,68.7,67.8,29.70,WNW,298,0.0,5.0,97,0.00,,---,0.00,VWS V14.00,2013-06-27 11:08:00,
2013-06-27 07:10:00,68.7,67.8,29.70,WNW,298,3.0,5.0,97,0.00,,---,0.00,VWS V14.00,2013-06-27 11:10:00,
2013-06-27 07:11:00,68.6,68.0,29.70,WNW,298,3.0,5.0,98,0.00,,---,0.00,VWS V14.00,2013-06-27 11:11:00,
2013-06-27 07:13:00,68.6,68.0,29.70,WNW,298,0.0,5.0,98,0.00,,---,0.00,VWS V14.00,2013-06-27 11:13:00,
2013-06-27 07:15:00,68.6,68.0,29.69,WNW,298,0.0,5.0,98,0.00,,---,0.00,VWS V14.00,2013-06-27 11:15:00,
2013-06-27 07:17:00,68.6,68.0,29.70,WNW,298,0.0,5.0,98,0.00,,---,0.00,VWS V14.00,2013-06-27 11:17:00,
2013-06-27 07:18:00,68.7,68.1,29.70,WNW,298,0.0,5.0,98,0.00,,---,0.00,VWS V14.00,2013-06-27 11:18:00,
2013-06-27 07:19:00,68.7,68.1,29.70,WNW,298,0.0,5.0,98,0.00,,---,0.00,VWS V14.00,2013-06-27 11:19:00,
2013-06-27 07:21:00,68.7,68.1,29.70,WNW,298,0.0,5.0,98,0.00,,---,0.00,VWS V14.00,2013-06-27 11:21:00,
2013-06-27 07:23:00,68.8,68.2,29.70,WNW,298,0.0,5.0,98,0.00,,---,0.00,VWS V14.00,2013-06-27 11:23:00,
2013-06-27 07:24:00,68.8,68.2,29.70,WNW,298,0.0,5.0,98,0.00,,---,0.00,VWS V14.00,2013-06-27 11:24:00,
2013-06-27 07:26:00,68.8,68.2,29.70,WNW,298,0.0,5.0,98,0.00,,---,0.00,VWS V14.00,2013-06-27 11:26:00,
2013-06-27 07:27:00,68.8,68.2,29.70,WNW,298,0.0,5.0,98,0.00,,---,0.00,VWS V14.00,2013-06-27 11:27:00,
2013-06-27 07:30:00,68.8,68.2,29.70,WNW,298,0.0,0.0,98,0.00,,---,0.00,VWS V14.00,2013-06-27 11:30:00,
2013-06-27 07:31:00,68.8,68.2,29.70,WNW,298,0.0,0.0,98,0.00,,---,0.00,VWS V14.00,2013-06-27 11:31:00,
2013-06-27 07:32:00,68.8,68.2,29.70,WNW,298,0.0,0.0,98,0.00,,---,0.00,VWS V14.00,2013-06-27 11:32:00,
2013-06-27 07:35:00,68.8,68.2,29.70,WNW,298,0.0,0.0,98,0.00,,---,0.00,VWS V14.00,2013-06-27 11:35:00,
2013-06-27 07:37:00,68.8,68.2,29.70,WNW,298,0.0,0.0,98,0.00,,---,0.00,VWS V14.00,2013-06-27 11:37:00,
2013-06-27 07:41:00,68.9,68.3,29.70,WNW,298,0.0,0.0,98,0.00,,---,0.00,VWS V14.00,2013-06-27 11:41:00,
2013-06-27 07:43:00,68.9,68.3,29.70,WNW,298,0.0,0.0,98,0.00,,---,0.00,VWS V14.00,2013-06-27 11:43:00,
2013-06-27 07:44:00,68.9,68.3,29.70,WNW,298,0.0,0.0,98,0.00,,---,0.00,VWS V14.00,2013-06-27 11:44:00,
2013-06-27 07:46:00,68.9,68.3,29.69,WNW,298,0.0,0.0,98,0.00,,---,0.00,VWS V14.00,2013-06-27 11:46:00,
2013-06-27 07:48:00,68.9,68.3,29.69,WNW,298,0.0,2.0,98,0.00,,---,0.00,VWS V14.00,2013-06-27 11:48:00,
2013-06-27 07:50:00,68.9,68.3,29.69,WNW,298,0.0,2.0,98,0.00,,---,0.00,VWS V14.00,2013-06-27 11:50:00,
2013-06-27 07:51:00,68.9,68.3,29.69,WNW,298,0.0,2.0,98,0.00,,---,0.00,VWS V14.00,2013-06-27 11:51:00,
2013-06-27 07:53:00,68.9,68.3,29.69,WNW,298,1.0,2.0,98,0.00,,---,0.00,VWS V14.00,2013-06-27 11:53:00,
2013-06-27 07:54:00,68.9,68.3,29.69,WNW,298,0.0,2.0,98,0.00,,---,0.00,VWS V14.00,2013-06-27 11:54:00,
2013-06-27 07:55:00,68.9,68.3,29.69,WNW,298,0.0,2.0,98,0.00,,---,0.00,VWS V14.00,2013-06-27 11:55:00,
2013-06-27 07:56:00,68.9,68.3,29.69,WNW,298,0.0,2.0,98,0.00,,---,0.00,VWS V14.00,2013-06-27 11:56:00,
2013-06-27 07:58:00,69.0,68.4,29.69,WNW,298,0.0,2.0,98,0.00,,---,0.00,VWS V14.00,2013-06-27 11:58:00,
2013-06-27 08:01:00,69.1,68.5,29.69,WNW,298,0.0,0.0,98,0.00,,---,0.00,VWS V14.00,2013-06-27 12:01:00,
2013-06-27 08:02:00,69.1,68.5,29.70,WNW,298,0.0,0.0,98,0.00,,---,0.00,VWS V14.00,2013-06-27 12:02:00,
2013-06-27 08:03:00,69.1,68.5,29.69,WNW,298,0.0,0.0,98,0.00,,---,0.00,VWS V14.00,2013-06-27 12:03:00,
2013-06-27 08:04:00,69.2,68.6,29.69,WNW,298,0.0,0.0,98,0.00,,---,0.00,VWS V14.00,2013-06-27 12:04:00,
2013-06-27 08:05:00,69.2,68.6,29.70,WNW,298,0.0,0.0,98,0.00,,---,0.00,VWS V14.00,2013-06-27 12:05:00,
2013-06-27 08:08:00,69.2,68.6,29.70,WNW,298,0.0,0.0,98,0.00,,---,0.00,VWS V14.00,2013-06-27 12:08:00,
2013-06-27 08:09:00,69.2,68.6,29.70,WNW,298,0.0,0.0,98,0.00,,---,0.00,VWS V14.00,2013-06-27 12:09:00,
2013-06-27 08:10:00,69.2,68.6,29.70,WNW,298,0.0,0.0,98,0.00,,---,0.00,VWS V14.00,2013-06-27 12:10:00,
2013-06-27 08:13:00,69.2,68.6,29.70,WNW,298,0.0,0.0,98,0.00,,---,0.00,VWS V14.00,2013-06-27 12:13:00,
2013-06-27 08:14:00,69.2,68.6,29.70,WNW,298,0.0,3.0,98,0.00,,---,0.00,VWS V14.00,2013-06-27 12:14:00,
2013-06-27 08:15:00,69.2,68.6,29.70,WNW,298,0.0,3.0,98,0.00,,---,0.00,VWS V14.00,2013-06-27 12:15:00,
2013-06-27 08:16:00,69.2,68.6,29.70,WNW,298,0.0,3.0,98,0.00,,---,0.00,VWS V14.00,2013-06-27 12:16:00,
2013-06-27 08:17:00,69.1,68.5,29.70,WNW,298,0.0,3.0,98,0.00,,---,0.00,VWS V14.00,2013-06-27 12:17:00,
2013-06-27 08:20:00,69.2,68.6,29.70,WNW,298,0.0,3.0,98,0.00,,---,0.00,VWS V14.00,2013-06-27 12:20:00,
2013-06-27 08:21:00,69.2,68.6,29.70,WNW,298,0.0,3.0,98,0.00,,---,0.00,VWS V14.00,2013-06-27 12:21:00,
2013-06-27 08:22:00,69.3,68.7,29.70,WNW,298,0.0,3.0,98,0.00,,---,0.00,VWS V14.00,2013-06-27 12:22:00,
2013-06-27 08:26:00,69.3,68.7,29.70,WNW,298,0.0,3.0,98,0.00,,---,0.00,VWS V14.00,2013-06-27 12:26:00,
2013-06-27 08:27:00,69.3,68.7,29.70,WNW,298,0.0,3.0,98,0.00,,---,0.00,VWS V14.00,2013-06-27 12:27:00,
2013-06-27 08:28:00,69.3,68.7,29.70,WNW,298,0.0,3.0,98,0.00,,---,0.00,VWS V14.00,2013-06-27 12:28:00,
2013-06-27 08:31:00,69.3,68.7,29.70,WNW,298,0.0,0.0,98,0.00,,---,0.00,VWS V14.00,2013-06-27 12:31:00,
2013-06-27 08:32:00,69.4,68.8,29.70,WNW,298,0.0,0.0,98,0.00,,---,0.00,VWS V14.00,2013-06-27 12:32:00,
2013-06-27 08:33:00,69.4,68.8,29.70,WNW,298,0.0,0.0,98,0.00,,---,0.00,VWS V14.00,2013-06-27 12:33:00,
2013-06-27 08:34:00,69.4,68.8,29.70,WNW,298,0.0,0.0,98,0.00,,---,0.00,VWS V14.00,2013-06-27 12:34:00,
2013-06-27 08:37:00,69.4,68.8,29.70,WNW,298,0.0,1.0,98,0.00,,---,0.00,VWS V14.00,2013-06-27 12:37:00,
2013-06-27 08:39:00,69.5,68.9,29.70,WNW,298,1.0,4.0,98,0.00,,---,0.00,VWS V14.00,2013-06-27 12:39:00,
2013-06-27 08:40:00,69.5,68.9,29.70,WNW,298,0.0,4.0,98,0.00,,---,0.00,VWS V14.00,2013-06-27 12:40:00,
2013-06-27 08:41:00,69.5,68.9,29.69,WNW,298,0.0,4.0,98,0.00,,---,0.00,VWS V14.00,2013-06-27 12:41:00,
2013-06-27 08:42:00,69.5,68.9,29.69,WNW,298,0.0,4.0,98,0.00,,---,0.00,VWS V14.00,2013-06-27 12:42:00,
2013-06-27 08:46:00,69.4,68.8,29.69,WNW,298,0.0,4.0,98,0.00,,---,0.00,VWS V14.00,2013-06-27 12:46:00,
2013-06-27 08:47:00,69.4,68.8,29.70,WNW,298,0.0,4.0,98,0.00,,---,0.00,VWS V14.00,2013-06-27 12:47:00,
2013-06-27 08:48:00,69.4,68.8,29.70,WNW,298,0.0,4.0,98,0.00,,---,0.00,VWS V14.00,2013-06-27 12:48:00,
2013-06-27 08:51:00,69.4,68.8,29.70,WNW,298,0.0,4.0,98,0.00,,---,0.00,VWS V14.00,2013-06-27 12:51:00,
2013-06-27 08:52:00,69.5,68.9,29.70,WNW,298,0.0,4.0,98,0.00,,---,0.00,VWS V14.00,2013-06-27 12:52:00,
2013-06-27 08:53:00,69.5,68.9,29.69,WNW,298,0.0,4.0,98,0.00,,---,0.00,VWS V14.00,2013-06-27 12:53:00,
2013-06-27 08:54:00,69.6,69.0,29.69,WNW,298,0.0,4.0,98,0.00,,---,0.00,VWS V14.00,2013-06-27 12:54:00,
2013-06-27 08:56:00,69.7,69.1,29.69,WNW,298,0.0,4.0,98,0.00,,---,0.00,VWS V14.00,2013-06-27 12:56:00,
2013-06-27 08:57:00,69.7,69.1,29.69,WNW,298,0.0,4.0,98,0.00,,---,0.00,VWS V14.00,2013-06-27 12:57:00,
2013-06-27 08:58:00,69.7,69.1,29.69,WNW,298,0.0,4.0,98,0.00,,---,0.00,VWS V14.00,2013-06-27 12:58:00,
2013-06-27 09:00:00,69.8,69.2,29.69,WNW,298,0.0,0.0,98,0.00,,---,0.00,VWS V14.00,2013-06-27 13:00:00,
2013-06-27 09:02:00,69.9,69.3,29.69,WNW,298,0.0,0.0,98,0.00,,---,0.00,VWS V14.00,2013-06-27 13:02:00,
2013-06-27 09:04:00,69.9,69.3,29.69,WNW,298,0.0,0.0,98,0.00,,---,0.00,VWS V14.00,2013-06-27 13:04:00,
2013-06-27 09:05:00,69.9,69.3,29.69,WNW,298,0.0,0.0,98,0.00,,---,0.00,VWS V14.00,2013-06-27 13:05:00,
2013-06-27 09:06:00,69.9,69.3,29.69,WNW,298,0.0,0.0,98,0.00,,---,0.00,VWS V14.00,2013-06-27 13:06:00,
2013-06-27 09:08:00,69.9,69.3,29.70,WNW,298,2.0,4.0,98,0.00,,---,0.00,VWS V14.00,2013-06-27 13:08:00,
2013-06-27 09:09:00,69.9,69.3,29.70,WNW,298,0.0,4.0,98,0.00,,---,0.00,VWS V14.00,2013-06-27 13:09:00,
2013-06-27 09:11:00,70.1,69.5,29.70,WNW,298,0.0,4.0,98,0.00,,---,0.00,VWS V14.00,2013-06-27 13:11:00,
2013-06-27 09:12:00,70.1,69.5,29.70,WNW,298,0.0,4.0,98,0.00,,---,0.00,VWS V14.00,2013-06-27 13:12:00,
2013-06-27 09:13:00,70.1,69.5,29.70,WNW,298,2.0,4.0,98,0.00,,---,0.00,VWS V14.00,2013-06-27 13:13:00,
2013-06-27 09:14:00,70.2,69.6,29.70,WNW,298,2.0,4.0,98,0.00,,---,0.00,VWS V14.00,2013-06-27 13:14:00,
2013-06-27 09:16:00,70.1,69.5,29.70,WNW,298,2.0,4.0,98,0.00,,---,0.00,VWS V14.00,2013-06-27 13:16:00,
2013-06-27 09:18:00,70.2,69.6,29.70,WNW,298,0.0,4.0,98,0.00,,---,0.00,VWS V14.00,2013-06-27 13:18:00,
2013-06-27 09:19:00,70.3,69.7,29.70,WNW,298,0.0,4.0,98,0.00,,---,0.00,VWS V14.00,2013-06-27 13:19:00,
2013-06-27 09:20:00,70.3,69.7,29.70,WNW,298,0.0,4.0,98,0.00,,---,0.00,VWS V14.00,2013-06-27 13:20:00,
2013-06-27 09:21:00,70.3,69.7,29.70,WNW,298,0.0,4.0,98,0.00,,---,0.00,VWS V14.00,2013-06-27 13:21:00,
2013-06-27 09:24:00,70.4,69.8,29.70,WNW,298,0.0,4.0,98,0.00,,---,0.00,VWS V14.00,2013-06-27 13:24:00,
2013-06-27 09:25:00,70.5,69.9,29.70,WNW,298,0.0,4.0,98,0.00,,---,0.00,VWS V14.00,2013-06-27 13:25:00,
2013-06-27 09:26:00,70.6,70.0,29.70,WNW,298,3.0,4.0,98,0.00,,---,0.00,VWS V14.00,2013-06-27 13:26:00,
2013-06-27 09:28:00,70.6,70.0,29.70,WNW,298,1.0,4.0,98,0.00,,---,0.00,VWS V14.00,2013-06-27 13:28:00,
2013-06-27 09:29:00,70.7,70.1,29.70,WNW,298,3.0,4.0,98,0.00,,---,0.00,VWS V14.00,2013-06-27 13:29:00,
2013-06-27 09:31:00,70.7,70.1,29.70,WNW,298,2.0,5.0,98,0.00,,---,0.00,VWS V14.00,2013-06-27 13:31:00,
2013-06-27 09:32:00,70.7,70.1,29.70,WNW,298,1.0,5.0,98,0.00,,---,0.00,VWS V14.00,2013-06-27 13:32:00,
2013-06-27 09:33:00,70.7,70.1,29.70,WNW,298,0.0,5.0,98,0.00,,---,0.00,VWS V14.00,2013-06-27 13:33:00,
2013-06-27 09:35:00,70.8,70.2,29.70,WNW,298,0.0,5.0,98,0.00,,---,0.00,VWS V14.00,2013-06-27 13:35:00,
2013-06-27 09:37:00,70.8,70.2,29.70,WNW,298,0.0,5.0,98,0.00,,---,0.00,VWS V14.00,2013-06-27 13:37:00,
2013-06-27 09:38:00,70.9,70.3,29.70,WNW,298,0.0,5.0,98,0.00,,---,0.00,VWS V14.00,2013-06-27 13:38:00,
2013-06-27 09:40:00,71.0,70.4,29.70,WNW,298,0.0,5.0,98,0.00,,---,0.00,VWS V14.00,2013-06-27 13:40:00,
2013-06-27 09:41:00,71.0,70.4,29.70,WNW,298,0.0,5.0,98,0.00,,---,0.00,VWS V14.00,2013-06-27 13:41:00,
2013-06-27 09:43:00,71.2,70.6,29.70,WNW,298,4.0,5.0,98,0.00,,---,0.00,VWS V14.00,2013-06-27 13:43:00,
2013-06-27 09:45:00,71.3,70.7,29.70,WNW,298,2.0,5.0,98,0.00,,---,0.00,VWS V14.00,2013-06-27 13:45:00,
2013-06-27 09:46:00,71.4,70.8,29.70,WNW,298,3.0,5.0,98,0.00,,---,0.00,VWS V14.00,2013-06-27 13:46:00,
2013-06-27 09:47:00,71.4,70.8,29.70,WNW,298,2.0,5.0,98,0.00,,---,0.00,VWS V14.00,2013-06-27 13:47:00,
2013-06-27 09:50:00,71.8,71.2,29.70,WNW,298,3.0,6.0,98,0.00,,---,0.00,VWS V14.00,2013-06-27 13:50:00,
2013-06-27 09:51:00,71.8,70.9,29.70,WNW,298,2.0,6.0,97,0.00,,---,0.00,VWS V14.00,2013-06-27 13:51:00,
2013-06-27 09:52:00,71.8,70.9,29.70,WNW,298,2.0,6.0,97,0.00,,---,0.00,VWS V14.00,2013-06-27 13:52:00,
2013-06-27 09:53:00,71.8,70.9,29.70,WNW,298,2.0,6.0,97,0.00,,---,0.00,VWS V14.00,2013-06-27 13:53:00,
2013-06-27 09:55:00,71.9,71.0,29.70,WNW,298,0.0,6.0,97,0.00,,---,0.00,VWS V14.00,2013-06-27 13:55:00,
2013-06-27 09:57:00,71.9,71.0,29.70,WNW,298,0.0,6.0,97,0.00,,---,0.00,VWS V14.00,2013-06-27 13:57:00,
2013-06-27 09:58:00,72.0,71.1,29.70,WNW,298,0.0,6.0,97,0.00,,---,0.00,VWS V14.00,2013-06-27 13:58:00,
2013-06-27 09:59:00,72.1,71.2,29.70,WNW,298,4.0,4.0,97,0.00,,---,0.00,VWS V14.00,2013-06-27 13:59:00,
2013-06-27 10:02:00,72.4,71.5,29.70,WNW,298,4.0,4.0,97,0.00,,---,0.00,VWS V14.00,2013-06-27 14:02:00,
2013-06-27 10:03:00,72.4,71.2,29.71,WNW,298,2.0,5.0,96,0.00,,---,0.00,VWS V14.00,2013-06-27 14:03:00,
2013-06-27 10:04:00,72.5,71.3,29.71,WNW,298,4.0,5.0,96,0.00,,---,0.00,VWS V14.00,2013-06-27 14:04:00,
2013-06-27 10:06:00,72.6,71.4,29.70,WNW,298,1.0,5.0,96,0.00,,---,0.00,VWS V14.00,2013-06-27 14:06:00,
2013-06-27 10:07:00,72.7,71.5,29.70,WNW,298,0.0,5.0,96,0.00,,---,0.00,VWS V14.00,2013-06-27 14:07:00,
2013-06-27 10:09:00,72.9,71.7,29.70,WNW,298,0.0,5.0,96,0.00,,---,0.00,VWS V14.00,2013-06-27 14:09:00,
2013-06-27 10:11:00,73.1,71.6,29.70,WNW,298,4.0,5.0,95,0.00,,---,0.00,VWS V14.00,2013-06-27 14:11:00,
2013-06-27 10:13:00,73.1,71.6,29.70,WNW,298,5.0,5.0,95,0.00,,---,0.00,VWS V14.00,2013-06-27 14:13:00,
2013-06-27 10:14:00,73.2,71.7,29.70,WNW,298,0.0,5.0,95,0.00,,---,0.00,VWS V14.00,2013-06-27 14:14:00,
2013-06-27 10:15:00,73.2,71.7,29.70,WNW,298,4.0,5.0,95,0.00,,---,0.00,VWS V14.00,2013-06-27 14:15:00,
2013-06-27 10:17:00,73.6,71.8,29.70,NW,307,2.0,5.0,94,0.00,,---,0.00,VWS V14.00,2013-06-27 14:17:00,
2013-06-27 10:19:00,73.8,72.0,29.71,NNE,12,3.0,10.0,94,0.00,,---,0.00,VWS V14.00,2013-06-27 14:19:00,
2013-06-27 10:20:00,73.9,72.1,29.70,NNE,13,1.0,10.0,94,0.00,,---,0.00,VWS V14.00,2013-06-27 14:20:00,
2013-06-27 10:23:00,74.4,72.2,29.71,North,5,3.0,10.0,93,0.00,,---,0.00,VWS V14.00,2013-06-27 14:23:00,
2013-06-27 10:25:00,74.6,72.4,29.70,North,355,0.0,10.0,93,0.00,,---,0.00,VWS V14.00,2013-06-27 14:25:00,
2013-06-27 10:26:00,74.8,72.3,29.70,North,355,0.0,10.0,92,0.00,,---,0.00,VWS V14.00,2013-06-27 14:26:00,
2013-06-27 10:29:00,75.1,72.3,29.70,North,350,0.0,0.0,91,0.00,,---,0.00,VWS V14.00,2013-06-27 14:29:00,
2013-06-27 10:30:00,75.2,72.4,29.70,North,350,0.0,0.0,91,0.00,,---,0.00,VWS V14.00,2013-06-27 14:30:00,
2013-06-27 10:31:00,75.2,72.4,29.70,North,350,3.0,4.0,91,0.00,,---,0.00,VWS V14.00,2013-06-27 14:31:00,
2013-06-27 10:32:00,75.3,72.5,29.70,North,351,1.0,4.0,91,0.00,,---,0.00,VWS V14.00,2013-06-27 14:32:00,
2013-06-27 10:35:00,75.7,72.6,29.70,North,355,2.0,4.0,90,0.00,,---,0.00,VWS V14.00,2013-06-27 14:35:00,
2013-06-27 10:36:00,75.8,72.3,29.69,North,355,0.0,4.0,89,0.00,,---,0.00,VWS V14.00,2013-06-27 14:36:00,
2013-06-27 10:40:00,76.4,72.9,29.69,NNW,346,0.0,6.0,89,0.00,,---,0.00,VWS V14.00,2013-06-27 14:40:00,
2013-06-27 10:41:00,76.7,72.9,29.69,NNW,346,0.0,6.0,88,0.00,,---,0.00,VWS V14.00,2013-06-27 14:41:00,
2013-06-27 10:42:00,76.8,73.0,29.69,NNW,348,0.0,6.0,88,0.00,,---,0.00,VWS V14.00,2013-06-27 14:42:00,
2013-06-27 10:43:00,76.9,72.7,29.69,North,349,0.0,6.0,87,0.00,,---,0.00,VWS V14.00,2013-06-27 14:43:00,
2013-06-27 10:45:00,76.9,72.4,29.69,North,349,1.0,6.0,86,0.00,,---,0.00,VWS V14.00,2013-06-27 14:45:00,
2013-06-27 10:46:00,76.8,72.3,29.69,North,349,1.0,6.0,86,0.00,,---,0.00,VWS V14.00,2013-06-27 14:46:00,
2013-06-27 10:48:00,76.9,72.4,29.70,North,349,0.0,6.0,86,0.00,,---,0.00,VWS V14.00,2013-06-27 14:48:00,
2013-06-27 10:49:00,77.1,72.6,29.69,NNW,344,5.0,6.0,86,0.00,,---,0.00,VWS V14.00,2013-06-27 14:49:00,
2013-06-27 10:51:00,77.3,72.8,29.69,NNW,340,2.0,6.0,86,0.00,,---,0.00,VWS V14.00,2013-06-27 14:51:00,
2013-06-27 10:52:00,77.4,72.9,29.69,WNW,296,5.0,6.0,86,0.00,,---,0.00,VWS V14.00,2013-06-27 14:52:00,
2013-06-27 10:53:00,77.6,73.1,29.69,WNW,295,0.0,6.0,86,0.00,,---,0.00,VWS V14.00,2013-06-27 14:53:00,
2013-06-27 10:55:00,77.7,72.8,29.69,WNW,296,4.0,6.0,85,0.00,,---,0.00,VWS V14.00,2013-06-27 14:55:00,
2013-06-27 10:56:00,77.8,72.9,29.69,NW,312,4.0,6.0,85,0.00,,---,0.00,VWS V14.00,2013-06-27 14:56:00,
2013-06-27 10:57:00,78.0,72.8,29.69,NW,313,3.0,6.0,84,0.00,,---,0.00,VWS V14.00,2013-06-27 14:57:00,
2013-06-27 10:58:00,78.1,72.9,29.69,NW,314,4.0,6.0,84,0.00,,---,0.00,VWS V14.00,2013-06-27 14:58:00,
2013-06-27 11:01:00,78.2,73.0,29.69,NNW,334,3.0,6.0,84,0.00,,---,0.00,VWS V14.00,2013-06-27 15:01:00,
2013-06-27 11:03:00,78.6,73.0,29.69,NNW,334,0.0,6.0,83,0.00,,---,0.00,VWS V14.00,2013-06-27 15:03:00,
2013-06-27 11:04:00,78.7,73.1,29.69,NNW,334,0.0,6.0,83,0.00,,---,0.00,VWS V14.00,2013-06-27 15:04:00,
2013-06-27 11:05:00,78.8,73.2,29.69,NNW,334,0.0,6.0,83,0.00,,---,0.00,VWS V14.00,2013-06-27 15:05:00,
2013-06-27 11:06:00,78.9,73.3,29.69,NNW,330,4.0,6.0,83,0.00,,---,0.00,VWS V14.00,2013-06-27 15:06:00,
2013-06-27 11:07:00,79.1,73.5,29.69,NNW,330,3.0,6.0,83,0.00,,---,0.00,VWS V14.00,2013-06-27 15:07:00,
2013-06-27 11:10:00,79.2,73.2,29.69,NNW,348,4.0,10.0,82,0.00,,---,0.00,VWS V14.00,2013-06-27 15:10:00,
2013-06-27 11:11:00,79.1,72.8,29.69,NNW,346,2.0,10.0,81,0.00,,---,0.00,VWS V14.00,2013-06-27 15:11:00,
2013-06-27 11:12:00,79.0,72.7,29.69,North,355,2.0,10.0,81,0.00,,---,0.00,VWS V14.00,2013-06-27 15:12:00,
2013-06-27 11:13:00,78.9,72.6,29.69,North,355,3.0,10.0,81,0.00,,---,0.00,VWS V14.00,2013-06-27 15:13:00,
2013-06-27 11:15:00,78.8,72.8,29.69,North,355,5.0,10.0,82,0.00,,---,0.00,VWS V14.00,2013-06-27 15:15:00,
2013-06-27 11:16:00,78.7,72.8,29.69,North,360,4.0,10.0,82,0.00,,---,0.00,VWS V14.00,2013-06-27 15:16:00,
2013-06-27 11:19:00,78.4,72.4,29.69,North,355,2.0,10.0,82,0.00,,---,0.00,VWS V14.00,2013-06-27 15:19:00,
2013-06-27 11:21:00,78.4,72.4,29.69,North,355,0.0,10.0,82,0.00,,---,0.00,VWS V14.00,2013-06-27 15:21:00,
2013-06-27 11:22:00,78.4,72.4,29.69,North,355,0.0,10.0,82,0.00,,---,0.00,VWS V14.00,2013-06-27 15:22:00,
2013-06-27 11:23:00,78.3,72.4,29.69,North,355,1.0,10.0,82,0.00,,---,0.00,VWS V14.00,2013-06-27 15:23:00,
2013-06-27 11:26:00,78.7,72.8,29.69,NW,323,4.0,10.0,82,0.00,,---,0.00,VWS V14.00,2013-06-27 15:26:00,
2013-06-27 11:28:00,78.7,72.8,29.69,NNW,329,4.0,10.0,82,0.00,,---,0.00,VWS V14.00,2013-06-27 15:28:00,
2013-06-27 11:30:00,78.7,72.4,29.69,NNW,344,0.0,6.0,81,0.00,,---,0.00,VWS V14.00,2013-06-27 15:30:00,
2013-06-27 11:31:00,78.7,72.4,29.69,North,355,9.0,10.0,81,0.00,,---,0.00,VWS V14.00,2013-06-27 15:31:00,
2013-06-27 11:34:00,78.8,72.8,29.69,North,355,5.0,10.0,82,0.00,,---,0.00,VWS V14.00,2013-06-27 15:34:00,
2013-06-27 11:35:00,79.0,73.0,29.69,NNW,344,6.0,10.0,82,0.00,,---,0.00,VWS V14.00,2013-06-27 15:35:00,
2013-06-27 11:37:00,79.1,72.8,29.69,NW,320,8.0,10.0,81,0.00,,---,0.00,VWS V14.00,2013-06-27 15:37:00,
2013-06-27 11:40:00,79.2,72.5,29.69,NW,326,0.0,10.0,80,0.00,,---,0.00,VWS V14.00,2013-06-27 15:40:00,
2013-06-27 11:41:00,79.3,72.6,29.69,NW,326,0.0,10.0,80,0.00,,---,0.00,VWS V14.00,2013-06-27 15:41:00,
2013-06-27 11:43:00,79.6,72.9,29.69,NW,319,6.0,12.0,80,0.00,,---,0.00,VWS V14.00,2013-06-27 15:43:00,
2013-06-27 11:44:00,79.7,73.0,29.69,NW,320,7.0,12.0,80,0.00,,---,0.00,VWS V14.00,2013-06-27 15:44:00,
2013-06-27 11:45:00,79.8,72.7,29.69,NNW,331,10.0,12.0,79,0.00,,---,0.00,VWS V14.00,2013-06-27 15:45:00,
2013-06-27 11:46:00,79.7,72.2,29.69,NNW,336,5.0,12.0,78,0.00,,---,0.00,VWS V14.00,2013-06-27 15:46:00,
2013-06-27 11:49:00,79.6,72.5,29.69,NNE,17,4.0,12.0,79,0.00,,---,0.00,VWS V14.00,2013-06-27 15:49:00,
2013-06-27 11:50:00,79.8,72.7,29.69,North,355,6.0,12.0,79,0.00,,---,0.00,VWS V14.00,2013-06-27 15:50:00,
2013-06-27 11:54:00,80.0,72.5,29.69,NW,318,10.0,13.0,78,0.00,,---,0.00,VWS V14.00,2013-06-27 15:54:00,
2013-06-27 11:56:00,80.2,72.7,29.69,NNW,333,4.0,13.0,78,0.00,,---,0.00,VWS V14.00,2013-06-27 15:56:00,
2013-06-27 11:57:00,80.2,72.7,29.69,NNW,348,0.0,13.0,78,0.00,,---,0.00,VWS V14.00,2013-06-27 15:57:00,
2013-06-27 12:00:00,80.4,72.9,29.69,WNW,299,0.0,11.0,78,0.00,,---,0.00,VWS V14.00,2013-06-27 16:00:00,
2013-06-27 12:01:00,80.5,73.0,29.69,WNW,299,9.0,11.0,78,0.00,,---,0.00,VWS V14.00,2013-06-27 16:01:00,
2013-06-27 12:05:00,81.0,73.1,29.69,West,279,4.0,11.0,77,0.00,,---,0.00,VWS V14.00,2013-06-27 16:05:00,
2013-06-27 12:06:00,81.1,72.8,29.69,WNW,296,7.0,11.0,76,0.00,,---,0.00,VWS V14.00,2013-06-27 16:06:00,
2013-06-27 12:07:00,81.2,72.9,29.69,WNW,296,5.0,11.0,76,0.00,,---,0.00,VWS V14.00,2013-06-27 16:07:00,
2013-06-27 12:09:00,81.3,73.0,29.69,NW,319,0.0,11.0,76,0.00,,---,0.00,VWS V14.00,2013-06-27 16:09:00,
2013-06-27 12:10:00,81.2,72.9,29.69,North,355,3.0,11.0,76,0.00,,---,0.00,VWS V14.00,2013-06-27 16:10:00,
2013-06-27 12:11:00,81.1,72.4,29.69,North,355,0.0,11.0,75,0.00,,---,0.00,VWS V14.00,2013-06-27 16:11:00,
2013-06-27 12:12:00,81.1,72.4,29.69,North,355,4.0,11.0,75,0.00,,---,0.00,VWS V14.00,2013-06-27 16:12:00,
2013-06-27 12:15:00,80.9,72.6,29.69,NNW,327,7.0,11.0,76,0.00,,---,0.00,VWS V14.00,2013-06-27 16:15:00,
2013-06-27 12:17:00,80.7,72.4,29.69,NNW,348,3.0,11.0,76,0.00,,---,0.00,VWS V14.00,2013-06-27 16:17:00,
2013-06-27 12:18:00,80.5,72.2,29.69,NNW,333,6.0,11.0,76,0.00,,---,0.00,VWS V14.00,2013-06-27 16:18:00,
2013-06-27 12:19:00,80.4,72.2,29.69,NW,319,5.0,11.0,76,0.00,,---,0.00,VWS V14.00,2013-06-27 16:19:00,
2013-06-27 12:20:00,80.4,72.2,29.69,NW,306,4.0,11.0,76,0.00,,---,0.00,VWS V14.00,2013-06-27 16:20:00,
2013-06-27 12:23:00,80.5,72.2,29.69,NW,322,3.0,11.0,76,0.00,,---,0.00,VWS V14.00,2013-06-27 16:23:00,
2013-06-27 12:24:00,80.7,72.4,29.69,WNW,299,0.0,11.0,76,0.00,,---,0.00,VWS V14.00,2013-06-27 16:24:00,
2013-06-27 12:25:00,80.8,72.5,29.69,NNW,327,5.0,11.0,76,0.00,,---,0.00,VWS V14.00,2013-06-27 16:25:00,
2013-06-27 12:28:00,80.9,71.8,29.69,NW,318,6.0,11.0,74,0.00,,---,0.00,VWS V14.00,2013-06-27 16:28:00,
2013-06-27 12:29:00,80.9,71.8,29.69,North,11,5.0,11.0,74,0.00,,---,0.00,VWS V14.00,2013-06-27 16:29:00,
2013-06-27 12:30:00,80.7,71.2,29.69,NNE,24,4.0,11.0,73,0.00,,---,0.00,VWS V14.00,2013-06-27 16:30:00,
2013-06-27 12:31:00,80.7,71.2,29.69,NNE,26,0.0,11.0,73,0.00,,---,0.00,VWS V14.00,2013-06-27 16:31:00,
2013-06-27 12:34:00,80.9,71.8,29.69,North,360,0.0,11.0,74,0.00,,---,0.00,VWS V14.00,2013-06-27 16:34:00,
2013-06-27 12:35:00,80.9,71.8,29.68,North,9,4.0,11.0,74,0.00,,---,0.00,VWS V14.00,2013-06-27 16:35:00,
2013-06-27 12:36:00,81.0,71.9,29.69,NNW,348,2.0,11.0,74,0.00,,---,0.00,VWS V14.00,2013-06-27 16:36:00,
2013-06-27 12:38:00,81.3,72.2,29.69,NNW,341,0.0,11.0,74,0.00,,---,0.00,VWS V14.00,2013-06-27 16:38:00,
2013-06-27 12:39:00,81.5,72.4,29.69,NNW,344,5.0,11.0,74,0.00,,---,0.00,VWS V14.00,2013-06-27 16:39:00,
2013-06-27 12:40:00,81.5,72.4,29.69,North,355,7.0,11.0,74,0.00,,---,0.00,VWS V14.00,2013-06-27 16:40:00,
2013-06-27 12:41:00,81.4,72.3,29.69,NW,326,5.0,11.0,74,0.00,,---,0.00,VWS V14.00,2013-06-27 16:41:00,
2013-06-27 12:42:00,81.4,72.3,29.69,NW,322,0.0,11.0,74,0.00,,---,0.00,VWS V14.00,2013-06-27 16:42:00,
2013-06-27 12:43:00,81.5,72.0,29.69,NNE,23,9.0,11.0,73,0.00,,---,0.00,VWS V14.00,2013-06-27 16:43:00,
2013-06-27 12:45:00,81.5,72.4,29.69,NW,325,3.0,11.0,74,0.00,,---,0.00,VWS V14.00,2013-06-27 16:45:00,
2013-06-27 12:47:00,81.5,72.0,29.69,NNW,341,4.0,11.0,73,0.00,,---,0.00,VWS V14.00,2013-06-27 16:47:00,
2013-06-27 12:48:00,81.6,72.1,29.69,NNW,342,3.0,11.0,73,0.00,,---,0.00,VWS V14.00,2013-06-27 16:48:00,
2013-06-27 12:51:00,81.6,72.1,29.69,NNW,348,9.0,12.0,73,0.00,,---,0.00,VWS V14.00,2013-06-27 16:51:00,
2013-06-27 12:52:00,81.6,72.1,29.69,NW,312,3.0,12.0,73,0.00,,---,0.00,VWS V14.00,2013-06-27 16:52:00,
2013-06-27 12:53:00,81.6,72.1,29.69,North,355,6.0,12.0,73,0.00,,---,0.00,VWS V14.00,2013-06-27 16:53:00,
2013-06-27 12:54:00,81.7,72.2,29.69,NNW,347,2.0,12.0,73,0.00,,---,0.00,VWS V14.00,2013-06-27 16:54:00,
2013-06-27 12:56:00,81.7,71.8,29.69,NNW,331,5.0,12.0,72,0.00,,---,0.00,VWS V14.00,2013-06-27 16:56:00,
2013-06-27 12:57:00,81.7,71.8,29.69,NNW,342,0.0,12.0,72,0.00,,---,0.00,VWS V14.00,2013-06-27 16:57:00,
2013-06-27 12:58:00,81.7,72.2,29.69,NNW,342,0.0,12.0,73,0.00,,---,0.00,VWS V14.00,2013-06-27 16:58:00,
2013-06-27 13:00:00,82.1,72.2,29.69,NNE,23,0.0,6.0,72,0.00,,---,0.00,VWS V14.00,2013-06-27 17:00:00,
2013-06-27 13:01:00,82.3,72.4,29.69,NNW,327,0.0,7.0,72,0.00,,---,0.00,VWS V14.00,2013-06-27 17:01:00,
2013-06-27 13:02:00,82.5,72.6,29.69,NNW,336,0.0,7.0,72,0.00,,---,0.00,VWS V14.00,2013-06-27 17:02:00,
2013-06-27 13:03:00,82.6,72.7,29.69,NNW,334,0.0,7.0,72,0.00,,---,0.00,VWS V14.00,2013-06-27 17:03:00,
2013-06-27 13:07:00,83.0,72.2,29.69,NNW,335,5.0,14.0,70,0.00,,---,0.00,VWS V14.00,2013-06-27 17:07:00,
2013-06-27 13:08:00,82.9,72.1,29.69,North,360,9.0,14.0,70,0.00,,---,0.00,VWS V14.00,2013-06-27 17:08:00,
2013-06-27 13:09:00,82.8,72.0,29.68,NE,37,9.0,14.0,70,0.00,,---,0.00,VWS V14.00,2013-06-27 17:09:00,
2013-06-27 13:11:00,82.7,72.3,29.69,North,355,10.0,14.0,71,0.00,,---,0.00,VWS V14.00,2013-06-27 17:11:00,
2013-06-27 13:14:00,82.6,71.8,29.69,NNW,348,12.0,15.0,70,0.00,,---,0.00,VWS V14.00,2013-06-27 17:14:00,
2013-06-27 13:15:00,82.5,71.3,29.69,NW,325,11.0,15.0,69,0.00,,---,0.00,VWS V14.00,2013-06-27 17:15:00,
2013-06-27 13:19:00,82.2,70.6,29.68,NNW,339,0.0,15.0,68,0.00,,---,0.00,VWS V14.00,2013-06-27 17:19:00,
2013-06-27 13:20:00,82.2,70.6,29.68,WNW,289,7.0,15.0,68,0.00,,---,0.00,VWS V14.00,2013-06-27 17:20:00,
2013-06-27 13:21:00,82.3,70.7,29.68,NW,304,6.0,15.0,68,0.00,,---,0.00,VWS V14.00,2013-06-27 17:21:00,
2013-06-27 13:25:00,82.5,71.7,29.68,NNW,344,0.0,15.0,70,0.00,,---,0.00,VWS V14.00,2013-06-27 17:25:00,
2013-06-27 13:26:00,82.6,71.8,29.68,NNW,346,0.0,15.0,70,0.00,,---,0.00,VWS V14.00,2013-06-27 17:26:00,
2013-06-27 13:27:00,82.6,71.8,29.68,NNW,336,6.0,15.0,70,0.00,,---,0.00,VWS V14.00,2013-06-27 17:27:00,
2013-06-27 13:28:00,82.7,71.5,29.68,NNW,333,7.0,8.0,69,0.00,,---,0.00,VWS V14.00,2013-06-27 17:28:00,
2013-06-27 13:31:00,82.8,71.6,29.68,NW,325,0.0,9.0,69,0.00,,---,0.00,VWS V14.00,2013-06-27 17:31:00,
2013-06-27 13:32:00,82.9,71.7,29.68,NNW,327,0.0,9.0,69,0.00,,---,0.00,VWS V14.00,2013-06-27 17:32:00,
2013-06-27 13:34:00,83.3,72.1,29.68,NW,324,0.0,9.0,69,0.00,,---,0.00,VWS V14.00,2013-06-27 17:34:00,
2013-06-27 13:36:00,83.7,72.0,29.68,NW,305,4.0,9.0,68,0.00,,---,0.00,VWS V14.00,2013-06-27 17:36:00,
2013-06-27 13:37:00,83.9,72.2,29.68,NNW,338,10.0,10.0,68,0.00,,---,0.00,VWS V14.00,2013-06-27 17:37:00,
2013-06-27 13:38:00,83.9,72.2,29.68,NW,314,11.0,12.0,68,0.00,,---,0.00,VWS V14.00,2013-06-27 17:38:00,
2013-06-27 13:39:00,83.9,72.2,29.68,NW,319,10.0,13.0,68,0.00,,---,0.00,VWS V14.00,2013-06-27 17:39:00,
2013-06-27 13:42:00,83.8,71.7,29.68,NW,317,6.0,13.0,67,0.00,,---,0.00,VWS V14.00,2013-06-27 17:42:00,
2013-06-27 13:43:00,83.7,71.1,29.68,NW,326,6.0,13.0,66,0.00,,---,0.00,VWS V14.00,2013-06-27 17:43:00,
2013-06-27 13:44:00,83.6,71.5,29.68,NNW,336,4.0,13.0,67,0.00,,---,0.00,VWS V14.00,2013-06-27 17:44:00,
2013-06-27 13:45:00,83.6,71.5,29.68,NW,318,3.0,13.0,67,0.00,,---,0.00,VWS V14.00,2013-06-27 17:45:00,
2013-06-27 13:48:00,83.7,72.0,29.68,NW,311,0.0,13.0,68,0.00,,---,0.00,VWS V14.00,2013-06-27 17:48:00,
2013-06-27 13:49:00,83.9,72.2,29.68,NW,312,0.0,13.0,68,0.00,,---,0.00,VWS V14.00,2013-06-27 17:49:00,
2013-06-27 13:51:00,84.3,72.6,29.67,WNW,298,0.0,13.0,68,0.00,,---,0.00,VWS V14.00,2013-06-27 17:51:00,
2013-06-27 13:53:00,84.7,72.5,29.68,WNW,298,6.0,13.0,67,0.00,,---,0.00,VWS V14.00,2013-06-27 17:53:00,
2013-06-27 13:55:00,84.6,72.0,29.68,WNW,303,10.0,14.0,66,0.00,,---,0.00,VWS V14.00,2013-06-27 17:55:00,
2013-06-27 13:56:00,84.4,71.8,29.68,North,360,10.0,14.0,66,0.00,,---,0.00,VWS V14.00,2013-06-27 17:56:00,
2013-06-27 13:57:00,84.1,71.5,29.68,North,355,2.0,14.0,66,0.00,,---,0.00,VWS V14.00,2013-06-27 17:57:00,
2013-06-27 13:59:00,84.0,71.9,29.68,NW,321,10.0,10.0,67,0.00,,---,0.00,VWS V14.00,2013-06-27 17:59:00,
2013-06-27 14:00:00,83.9,71.8,29.68,NW,322,7.0,10.0,67,0.00,,---,0.00,VWS V14.00,2013-06-27 18:00:00,
2013-06-27 14:01:00,83.9,71.8,29.68,NNE,30,0.0,10.0,67,0.00,,---,0.00,VWS V14.00,2013-06-27 18:01:00,
2013-06-27 14:04:00,83.8,71.7,29.68,NW,310,8.0,16.0,67,0.00,,---,0.00,VWS V14.00,2013-06-27 18:04:00,
2013-06-27 14:05:00,83.9,71.8,29.68,NW,306,7.0,16.0,67,0.00,,---,0.00,VWS V14.00,2013-06-27 18:05:00,
2013-06-27 14:06:00,84.0,71.9,29.68,NW,304,5.0,16.0,67,0.00,,---,0.00,VWS V14.00,2013-06-27 18:06:00,
2013-06-27 14:07:00,84.1,72.0,29.68,NNW,340,10.0,16.0,67,0.00,,---,0.00,VWS V14.00,2013-06-27 18:07:00,
2013-06-27 14:09:00,84.0,71.0,29.68,North,355,8.0,16.0,65,0.00,,---,0.00,VWS V14.00,2013-06-27 18:09:00,
2013-06-27 14:11:00,83.9,70.9,29.68,North,350,6.0,16.0,65,0.00,,---,0.00,VWS V14.00,2013-06-27 18:11:00,
2013-06-27 14:13:00,83.8,70.3,29.67,North,360,3.0,16.0,64,0.00,,---,0.00,VWS V14.00,2013-06-27 18:13:00,
2013-06-27 14:15:00,83.9,70.9,29.67,North,355,10.0,16.0,65,0.00,,---,0.00,VWS V14.00,2013-06-27 18:15:00,
2013-06-27 14:16:00,84.0,71.9,29.67,NNW,344,11.0,16.0,67,0.00,,---,0.00,VWS V14.00,2013-06-27 18:16:00,
2013-06-27 14:17:00,84.0,71.9,29.67,NW,323,11.0,16.0,67,0.00,,---,0.00,VWS V14.00,2013-06-27 18:17:00,
2013-06-27 14:19:00,83.9,71.8,29.67,NW,307,4.0,16.0,67,0.00,,---,0.00,VWS V14.00,2013-06-27 18:19:00,
2013-06-27 14:20:00,83.9,71.8,29.67,NNW,329,7.0,16.0,67,0.00,,---,0.00,VWS V14.00,2013-06-27 18:20:00,
2013-06-27 14:22:00,83.9,71.8,29.67,NW,311,7.0,16.0,67,0.00,,---,0.00,VWS V14.00,2013-06-27 18:22:00,
2013-06-27 14:23:00,84.1,71.1,29.67,NW,304,0.0,16.0,65,0.00,,---,0.00,VWS V14.00,2013-06-27 18:23:00,
2013-06-27 14:25:00,84.4,71.4,29.67,NW,304,0.0,16.0,65,0.00,,---,0.00,VWS V14.00,2013-06-27 18:25:00,
2013-06-27 14:26:00,84.7,71.6,29.67,NW,305,0.0,16.0,65,0.00,,---,0.00,VWS V14.00,2013-06-27 18:26:00,
2013-06-27 14:28:00,85.0,71.9,29.67,NNW,348,0.0,16.0,65,0.00,,---,0.00,VWS V14.00,2013-06-27 18:28:00,
2013-06-27 14:29:00,85.2,71.7,29.67,WNW,291,0.0,0.0,64,0.00,,---,0.00,VWS V14.00,2013-06-27 18:29:00,
2013-06-27 14:31:00,85.7,71.7,29.67,WNW,299,5.0,10.0,63,0.00,,---,0.00,VWS V14.00,2013-06-27 18:31:00,
2013-06-27 14:32:00,86.0,71.9,29.67,NW,321,8.0,10.0,63,0.00,,---,0.00,VWS V14.00,2013-06-27 18:32:00,
2013-06-27 14:34:00,86.0,72.4,29.67,WNW,295,10.0,11.0,64,0.00,,---,0.00,VWS V14.00,2013-06-27 18:34:00,
2013-06-27 14:35:00,85.9,72.3,29.67,WNW,302,11.0,13.0,64,0.00,,---,0.00,VWS V14.00,2013-06-27 18:35:00,
2013-06-27 14:36:00,85.9,71.8,29.67,NNW,331,10.0,13.0,63,0.00,,---,0.00,VWS V14.00,2013-06-27 18:36:00,
2013-06-27 14:38:00,85.3,71.8,29.67,WNW,294,12.0,13.0,64,0.00,,---,0.00,VWS V14.00,2013-06-27 18:38:00,
2013-06-27 14:40:00,85.3,71.8,29.67,WNW,282,4.0,13.0,64,0.00,,---,0.00,VWS V14.00,2013-06-27 18:40:00,
2013-06-27 14:41:00,85.4,71.8,29.67,NW,312,0.0,13.0,64,0.00,,---,0.00,VWS V14.00,2013-06-27 18:41:00,
2013-06-27 14:42:00,85.5,71.9,29.67,NW,315,0.0,13.0,64,0.00,,---,0.00,VWS V14.00,2013-06-27 18:42:00,
2013-06-27 14:44:00,85.4,71.4,29.67,North,355,14.0,14.0,63,0.00,,---,0.00,VWS V14.00,2013-06-27 18:44:00,
2013-06-27 14:45:00,84.8,70.3,29.67,NW,311,6.0,14.0,62,0.00,,---,0.00,VWS V14.00,2013-06-27 18:45:00,
2013-06-27 14:47:00,84.9,70.0,29.67,NW,309,11.0,14.0,61,0.00,,---,0.00,VWS V14.00,2013-06-27 18:47:00,
2013-06-27 14:48:00,84.9,70.0,29.67,WNW,298,11.0,14.0,61,0.00,,---,0.00,VWS V14.00,2013-06-27 18:48:00,
2013-06-27 14:49:00,85.2,70.2,29.67,WNW,294,12.0,16.0,61,0.00,,---,0.00,VWS V14.00,2013-06-27 18:49:00,
2013-06-27 14:50:00,85.3,69.8,29.67,WNW,299,2.0,16.0,60,0.00,,---,0.00,VWS V14.00,2013-06-27 18:50:00,
2013-06-27 14:53:00,85.3,70.3,29.67,WNW,284,1.0,16.0,61,0.00,,---,0.00,VWS V14.00,2013-06-27 18:53:00,
2013-06-27 14:54:00,85.4,70.4,29.67,West,271,4.0,16.0,61,0.00,,---,0.00,VWS V14.00,2013-06-27 18:54:00,
2013-06-27 14:55:00,85.4,69.9,29.67,West,281,9.0,16.0,60,0.00,,---,0.00,VWS V14.00,2013-06-27 18:55:00,
2013-06-27 14:57:00,85.6,70.6,29.67,NNW,348,8.0,16.0,61,0.00,,---,0.00,VWS V14.00,2013-06-27 18:57:00,
2013-06-27 14:59:00,85.3,69.8,29.67,NNW,347,0.0,0.0,60,0.00,,---,0.00,VWS V14.00,2013-06-27 18:59:00,
2013-06-27 15:00:00,85.4,70.4,29.67,NNW,329,0.0,0.0,61,0.00,,---,0.00,VWS V14.00,2013-06-27 19:00:00,
2013-06-27 15:02:00,85.3,70.8,29.67,NW,318,10.0,11.0,62,0.00,,---,0.00,VWS V14.00,2013-06-27 19:02:00,
2013-06-27 15:05:00,85.1,70.6,29.67,WNW,290,6.0,11.0,62,0.00,,---,0.00,VWS V14.00,2013-06-27 19:05:00,
2013-06-27 15:06:00,85.2,70.7,29.67,NNW,340,6.0,12.0,62,0.00,,---,0.00,VWS V14.00,2013-06-27 19:06:00,
2013-06-27 15:08:00,85.2,70.2,29.67,West,268,7.0,12.0,61,0.00,,---,0.00,VWS V14.00,2013-06-27 19:08:00,
2013-06-27 15:09:00,85.2,70.2,29.67,WNW,283,4.0,12.0,61,0.00,,---,0.00,VWS V14.00,2013-06-27 19:09:00,
2013-06-27 15:11:00,85.6,70.1,29.67,NW,315,5.0,13.0,60,0.00,,---,0.00,VWS V14.00,2013-06-27 19:11:00,
2013-06-27 15:12:00,85.9,70.4,29.67,NW,318,11.0,13.0,60,0.00,,---,0.00,VWS V14.00,2013-06-27 19:12:00,
2013-06-27 15:13:00,86.0,70.0,29.67,NW,306,9.0,14.0,59,0.00,,---,0.00,VWS V14.00,2013-06-27 19:13:00,
2013-06-27 15:14:00,85.9,69.4,29.67,North,355,8.0,14.0,58,0.00,,---,0.00,VWS V14.00,2013-06-27 19:14:00,
2013-06-27 15:15:00,85.8,69.3,29.67,NW,325,7.0,14.0,58,0.00,,---,0.00,VWS V14.00,2013-06-27 19:15:00,
2013-06-27 15:17:00,85.7,70.2,29.67,West,276,11.0,14.0,60,0.00,,---,0.00,VWS V14.00,2013-06-27 19:17:00,
2013-06-27 15:18:00,85.4,70.4,29.67,NW,315,7.0,14.0,61,0.00,,---,0.00,VWS V14.00,2013-06-27 19:18:00,
2013-06-27 15:19:00,85.2,70.7,29.67,NNW,345,7.0,14.0,62,0.00,,---,0.00,VWS V14.00,2013-06-27 19:19:00,
2013-06-27 15:20:00,85.1,70.6,29.67,NNW,341,10.0,14.0,62,0.00,,---,0.00,VWS V14.00,2013-06-27 19:20:00,
2013-06-27 15:24:00,84.7,69.8,29.67,NW,323,12.0,18.0,61,0.00,,---,0.00,VWS V14.00,2013-06-27 19:24:00,
2013-06-27 15:25:00,84.5,70.1,29.67,NW,311,10.0,18.0,62,0.00,,---,0.00,VWS V14.00,2013-06-27 19:25:00,
2013-06-27 15:26:00,84.4,70.4,29.67,NW,304,16.0,18.0,63,0.00,,---,0.00,VWS V14.00,2013-06-27 19:26:00,
2013-06-27 15:29:00,84.8,70.3,29.67,West,281,3.0,7.0,62,0.00,,---,0.00,VWS V14.00,2013-06-27 19:29:00,
2013-06-27 15:30:00,84.8,70.3,29.67,WNW,301,0.0,7.0,62,0.00,,---,0.00,VWS V14.00,2013-06-27 19:30:00,
2013-06-27 15:31:00,85.0,69.6,29.67,NNW,330,0.0,17.0,60,0.00,,---,0.00,VWS V14.00,2013-06-27 19:31:00,
2013-06-27 15:34:00,85.2,69.8,29.67,NNW,342,4.0,17.0,60,0.00,,---,0.00,VWS V14.00,2013-06-27 19:34:00,
2013-06-27 15:35:00,85.1,69.7,29.67,NNW,340,8.0,17.0,60,0.00,,---,0.00,VWS V14.00,2013-06-27 19:35:00,
2013-06-27 15:36:00,84.9,70.0,29.67,WNW,301,3.0,17.0,61,0.00,,---,0.00,VWS V14.00,2013-06-27 19:36:00,
2013-06-27 15:38:00,84.9,70.4,29.67,WNW,287,10.0,17.0,62,0.00,,---,0.00,VWS V14.00,2013-06-27 19:38:00,
2013-06-27 15:39:00,85.0,70.5,29.67,NW,326,9.0,17.0,62,0.00,,---,0.00,VWS V14.00,2013-06-27 19:39:00,
2013-06-27 15:40:00,85.0,70.5,29.67,NW,316,16.0,17.0,62,0.00,,---,0.00,VWS V14.00,2013-06-27 19:40:00,
2013-06-27 15:41:00,85.0,70.5,29.67,NW,307,14.0,19.0,62,0.00,,---,0.00,VWS V14.00,2013-06-27 19:41:00,
2013-06-27 15:43:00,84.6,70.6,29.67,NW,321,5.0,19.0,63,0.00,,---,0.00,VWS V14.00,2013-06-27 19:43:00,
2013-06-27 15:45:00,84.3,70.8,29.67,WNW,299,6.0,19.0,64,0.00,,---,0.00,VWS V14.00,2013-06-27 19:45:00,
2013-06-27 15:46:00,84.2,70.7,29.67,NW,309,5.0,19.0,64,0.00,,---,0.00,VWS V14.00,2013-06-27 19:46:00,
2013-06-27 15:50:00,84.6,71.1,29.67,WNW,299,4.0,19.0,64,0.00,,---,0.00,VWS V14.00,2013-06-27 19:50:00,
2013-06-27 15:51:00,84.6,71.1,29.67,WNW,292,9.0,19.0,64,0.00,,---,0.00,VWS V14.00,2013-06-27 19:51:00,
2013-06-27 15:52:00,84.7,70.7,29.66,WNW,298,10.0,19.0,63,0.00,,---,0.00,VWS V14.00,2013-06-27 19:52:00,
2013-06-27 15:53:00,84.8,70.8,29.67,West,266,11.0,19.0,63,0.00,,---,0.00,VWS V14.00,2013-06-27 19:53:00,
2013-06-27 15:56:00,84.5,70.5,29.66,North,5,11.0,19.0,63,0.00,,---,0.00,VWS V14.00,2013-06-27 19:56:00,
2013-06-27 15:57:00,84.3,70.8,29.66,NW,322,5.0,19.0,64,0.00,,---,0.00,VWS V14.00,2013-06-27 19:57:00,
2013-06-27 15:58:00,84.2,70.7,29.66,NNW,327,5.0,19.0,64,0.00,,---,0.00,VWS V14.00,2013-06-27 19:58:00,
2013-06-27 15:59:00,84.1,70.6,29.66,NW,319,15.0,15.0,64,0.00,,---,0.00,VWS V14.00,2013-06-27 19:59:00,
2013-06-27 16:01:00,84.2,71.2,29.66,NW,306,15.0,18.0,65,0.00,,---,0.00,VWS V14.00,2013-06-27 20:01:00,
2013-06-27 16:03:00,84.2,70.7,29.66,NW,306,5.0,18.0,64,0.00,,---,0.00,VWS V14.00,2013-06-27 20:03:00,
2013-06-27 16:04:00,84.1,71.1,29.66,NW,318,8.0,18.0,65,0.00,,---,0.00,VWS V14.00,2013-06-27 20:04:00,
2013-06-27 16:06:00,83.7,70.7,29.66,WNW,290,7.0,18.0,65,0.00,,---,0.00,VWS V14.00,2013-06-27 20:06:00,
2013-06-27 16:07:00,83.6,71.5,29.66,NW,311,4.0,18.0,67,0.00,,---,0.00,VWS V14.00,2013-06-27 20:07:00,
2013-06-27 16:08:00,83.6,71.5,29.66,NW,319,6.0,18.0,67,0.00,,---,0.00,VWS V14.00,2013-06-27 20:08:00,
2013-06-27 16:11:00,83.4,71.3,29.66,WNW,300,15.0,18.0,67,0.00,,---,0.00,VWS V14.00,2013-06-27 20:11:00,
2013-06-27 16:13:00,83.2,71.1,29.66,NNW,333,13.0,18.0,67,0.00,,---,0.00,VWS V14.00,2013-06-27 20:13:00,
2013-06-27 16:14:00,83.0,70.9,29.66,NW,317,7.0,18.0,67,0.00,,---,0.00,VWS V14.00,2013-06-27 20:14:00,
2013-06-27 16:15:00,83.0,71.4,29.66,NW,306,10.0,18.0,68,0.00,,---,0.00,VWS V14.00,2013-06-27 20:15:00,
2013-06-27 16:16:00,82.9,71.3,29.66,NNW,331,9.0,18.0,68,0.00,,---,0.00,VWS V14.00,2013-06-27 20:16:00,
2013-06-27 16:18:00,82.8,71.2,29.65,WNW,287,12.0,18.0,68,0.00,,---,0.00,VWS V14.00,2013-06-27 20:18:00,
2013-06-27 16:19:00,82.7,71.1,29.65,NW,306,8.0,18.0,68,0.00,,---,0.00,VWS V14.00,2013-06-27 20:19:00,
2013-06-27 16:21:00,83.0,71.8,29.65,NW,307,18.0,18.0,69,0.00,,---,0.00,VWS V14.00,2013-06-27 20:21:00,
2013-06-27 16:23:00,83.2,71.6,29.65,West,275,14.0,18.0,68,0.00,,---,0.00,VWS V14.00,2013-06-27 20:23:00,
2013-06-27 16:24:00,83.3,71.6,29.65,NW,307,10.0,18.0,68,0.00,,---,0.00,VWS V14.00,2013-06-27 20:24:00,
2013-06-27 16:25:00,83.4,71.7,29.65,NW,313,13.0,18.0,68,0.00,,---,0.00,VWS V14.00,2013-06-27 20:25:00,
2013-06-27 16:27:00,83.7,71.6,29.65,NW,317,6.0,18.0,67,0.00,,---,0.00,VWS V14.00,2013-06-27 20:27:00,
2013-06-27 16:28:00,83.8,71.7,29.65,NW,320,14.0,18.0,67,0.00,,---,0.00,VWS V14.00,2013-06-27 20:28:00,
2013-06-27 16:31:00,84.1,72.0,29.65,NW,309,21.0,21.0,67,0.00,,---,0.00,VWS V14.00,2013-06-27 20:31:00,
2013-06-27 16:32:00,83.9,71.8,29.65,WNW,300,10.0,21.0,67,0.00,,---,0.00,VWS V14.00,2013-06-27 20:32:00,
2013-06-27 16:33:00,83.9,71.8,29.65,NNW,331,10.0,21.0,67,0.00,,---,0.00,VWS V14.00,2013-06-27 20:33:00,
2013-06-27 16:34:00,83.8,71.7,29.65,NW,315,6.0,21.0,67,0.00,,---,0.00,VWS V14.00,2013-06-27 20:34:00,
2013-06-27 16:36:00,84.0,72.3,29.65,West,277,3.0,21.0,68,0.00,,---,0.00,VWS V14.00,2013-06-27 20:36:00,
2013-06-27 16:39:00,84.4,72.2,29.65,West,269,11.0,21.0,67,0.00,,---,0.00,VWS V14.00,2013-06-27 20:39:00,
2013-06-27 16:40:00,84.6,72.4,29.65,WNW,285,5.0,21.0,67,0.00,,---,0.00,VWS V14.00,2013-06-27 20:40:00,
2013-06-27 16:45:00,83.7,71.6,29.65,West,269,14.0,25.0,67,0.00,,---,0.00,VWS V14.00,2013-06-27 20:45:00,
2013-06-27 16:46:00,83.6,71.9,29.65,WNW,283,11.0,25.0,68,0.00,,---,0.00,VWS V14.00,2013-06-27 20:46:00,
2013-06-27 16:47:00,83.5,71.8,29.65,WNW,293,14.0,25.0,68,0.00,,---,0.00,VWS V14.00,2013-06-27 20:47:00,
2013-06-27 16:52:00,83.4,72.2,29.64,NW,304,6.0,25.0,69,0.00,,---,0.00,VWS V14.00,2013-06-27 20:52:00,
2013-06-27 16:53:00,83.4,72.2,29.64,NNW,336,11.0,25.0,69,0.00,,---,0.00,VWS V14.00,2013-06-27 20:53:00,
2013-06-27 16:54:00,83.4,72.2,29.64,NW,308,12.0,25.0,69,0.00,,---,0.00,VWS V14.00,2013-06-27 20:54:00,
2013-06-27 16:57:00,83.1,71.9,29.64,NW,317,14.0,25.0,69,0.00,,---,0.00,VWS V14.00,2013-06-27 20:57:00,
2013-06-27 16:58:00,83.1,71.9,29.64,NNW,331,13.0,25.0,69,0.00,,---,0.00,VWS V14.00,2013-06-27 20:58:00,
2013-06-27 17:01:00,83.0,72.2,29.64,WNW,290,6.0,17.0,70,0.00,,---,0.00,VWS V14.00,2013-06-27 21:01:00,
2013-06-27 17:04:00,83.5,72.3,29.64,NW,309,11.0,19.0,69,0.00,,---,0.00,VWS V14.00,2013-06-27 21:04:00,
2013-06-27 17:05:00,83.5,72.3,29.64,NW,308,6.0,19.0,69,0.00,,---,0.00,VWS V14.00,2013-06-27 21:05:00,
2013-06-27 17:06:00,83.7,72.5,29.63,WNW,288,7.0,19.0,69,0.00,,---,0.00,VWS V14.00,2013-06-27 21:06:00,
2013-06-27 17:11:00,84.4,72.2,29.63,West,277,10.0,19.0,67,0.00,,---,0.00,VWS V14.00,2013-06-27 21:11:00,
2013-06-27 17:12:00,84.6,72.0,29.63,WNW,303,9.0,19.0,66,0.00,,---,0.00,VWS V14.00,2013-06-27 21:12:00,
2013-06-27 17:17:00,84.4,71.8,29.64,NNW,347,13.0,19.0,66,0.00,,---,0.00,VWS V14.00,2013-06-27 21:17:00,
2013-06-27 17:18:00,84.0,71.4,29.64,North,360,11.0,19.0,66,0.00,,---,0.00,VWS V14.00,2013-06-27 21:18:00,
2013-06-27 17:19:00,83.8,71.7,29.64,NNW,337,12.0,19.0,67,0.00,,---,0.00,VWS V14.00,2013-06-27 21:19:00,
2013-06-27 17:20:00,83.8,71.7,29.64,NNW,333,11.0,19.0,67,0.00,,---,0.00,VWS V14.00,2013-06-27 21:20:00,
2013-06-27 17:23:00,83.4,71.7,29.64,NNW,328,13.0,19.0,68,0.00,,---,0.00,VWS V14.00,2013-06-27 21:23:00,
2013-06-27 17:24:00,83.3,71.6,29.64,WNW,293,9.0,19.0,68,0.00,,---,0.00,VWS V14.00,2013-06-27 21:24:00,
2013-06-27 17:26:00,83.4,71.7,29.64,NW,313,6.0,19.0,68,0.00,,---,0.00,VWS V14.00,2013-06-27 21:26:00,
2013-06-27 17:31:00,83.9,72.2,29.64,NNE,15,10.0,14.0,68,0.00,,---,0.00,VWS V14.00,2013-06-27 21:31:00,
2013-06-27 17:32:00,84.0,72.3,29.64,North,5,11.0,14.0,68,0.00,,---,0.00,VWS V14.00,2013-06-27 21:32:00,
2013-06-27 17:33:00,83.9,72.2,29.64,WNW,299,6.0,15.0,68,0.00,,---,0.00,VWS V14.00,2013-06-27 21:33:00,
2013-06-27 17:34:00,83.8,71.7,29.64,North,355,15.0,18.0,67,0.00,,---,0.00,VWS V14.00,2013-06-27 21:34:00,
2013-06-27 17:37:00,83.5,71.4,29.65,NNW,327,6.0,18.0,67,0.00,,---,0.00,VWS V14.00,2013-06-27 21:37:00,
2013-06-27 17:38:00,83.6,71.5,29.65,NNW,329,12.0,18.0,67,0.00,,---,0.00,VWS V14.00,2013-06-27 21:38:00,
2013-06-27 17:39:00,83.6,71.5,29.65,NNW,345,11.0,18.0,67,0.00,,---,0.00,VWS V14.00,2013-06-27 21:39:00,
2013-06-27 17:40:00,83.5,71.4,29.64,West,269,7.0,18.0,67,0.00,,---,0.00,VWS V14.00,2013-06-27 21:40:00,
2013-06-27 17:42:00,83.7,71.6,29.64,NW,321,12.0,18.0,67,0.00,,---,0.00,VWS V14.00,2013-06-27 21:42:00,
2013-06-27 17:43:00,83.8,71.2,29.64,NW,315,12.0,18.0,66,0.00,,---,0.00,VWS V14.00,2013-06-27 21:43:00,
2013-06-27 17:44:00,83.8,71.2,29.64,West,263,10.0,18.0,66,0.00,,---,0.00,VWS V14.00,2013-06-27 21:44:00,
2013-06-27 17:45:00,83.6,71.1,29.64,WNW,302,10.0,18.0,66,0.00,,---,0.00,VWS V14.00,2013-06-27 21:45:00,
2013-06-27 17:48:00,83.3,70.8,29.64,NW,310,10.0,18.0,66,0.00,,---,0.00,VWS V14.00,2013-06-27 21:48:00,
2013-06-27 17:49:00,83.2,71.1,29.64,WNW,303,11.0,18.0,67,0.00,,---,0.00,VWS V14.00,2013-06-27 21:49:00,
2013-06-27 17:50:00,83.1,71.0,29.64,North,9,10.0,18.0,67,0.00,,---,0.00,VWS V14.00,2013-06-27 21:50:00,
2013-06-27 17:51:00,83.1,71.0,29.64,North,355,6.0,18.0,67,0.00,,---,0.00,VWS V14.00,2013-06-27 21:51:00,
2013-06-27 17:54:00,82.9,70.8,29.64,NW,326,11.0,18.0,67,0.00,,---,0.00,VWS V14.00,2013-06-27 21:54:00,
2013-06-27 17:55:00,82.9,70.8,29.64,NNW,332,5.0,18.0,67,0.00,,---,0.00,VWS V14.00,2013-06-27 21:55:00,
2013-06-27 17:56:00,82.9,70.8,29.64,NW,315,10.0,18.0,67,0.00,,---,0.00,VWS V14.00,2013-06-27 21:56:00,
2013-06-27 17:59:00,83.2,70.7,29.64,NW,314,5.0,12.0,66,0.00,,---,0.00,VWS V14.00,2013-06-27 21:59:00,
2013-06-27 18:00:00,83.2,70.7,29.64,NNW,341,6.0,12.0,66,0.00,,---,0.00,VWS V14.00,2013-06-27 22:00:00,
2013-06-27 18:01:00,83.3,70.8,29.63,NW,325,12.0,13.0,66,0.00,,---,0.00,VWS V14.00,2013-06-27 22:01:00,
2013-06-27 18:05:00,83.0,70.0,29.63,NW,304,11.0,18.0,65,0.00,,---,0.00,VWS V14.00,2013-06-27 22:05:00,
2013-06-27 18:06:00,82.9,69.9,29.63,NNW,334,14.0,18.0,65,0.00,,---,0.00,VWS V14.00,2013-06-27 22:06:00,
2013-06-27 18:08:00,82.4,69.9,29.63,NW,325,9.0,18.0,66,0.00,,---,0.00,VWS V14.00,2013-06-27 22:08:00,
2013-06-27 18:12:00,82.1,70.1,29.63,NNW,333,6.0,18.0,67,0.00,,---,0.00,VWS V14.00,2013-06-27 22:12:00,
2013-06-27 18:13:00,82.1,70.1,29.63,NW,313,7.0,18.0,67,0.00,,---,0.00,VWS V14.00,2013-06-27 22:13:00,
2013-06-27 18:14:00,82.0,70.4,29.63,WNW,292,9.0,18.0,68,0.00,,---,0.00,VWS V14.00,2013-06-27 22:14:00,
2013-06-27 18:17:00,81.6,70.0,29.63,NW,317,5.0,18.0,68,0.00,,---,0.00,VWS V14.00,2013-06-27 22:17:00,
2013-06-27 18:18:00,81.6,70.0,29.63,NW,323,9.0,18.0,68,0.00,,---,0.00,VWS V14.00,2013-06-27 22:18:00,
2013-06-27 18:19:00,81.5,69.9,29.63,NNW,341,3.0,18.0,68,0.00,,---,0.00,VWS V14.00,2013-06-27 22:19:00,
2013-06-27 18:21:00,81.3,70.2,29.63,North,360,7.0,18.0,69,0.00,,---,0.00,VWS V14.00,2013-06-27 22:21:00,
2013-06-27 18:23:00,81.2,70.1,29.63,NW,322,4.0,18.0,69,0.00,,---,0.00,VWS V14.00,2013-06-27 22:23:00,
2013-06-27 18:24:00,81.2,70.1,29.63,NNW,345,5.0,18.0,69,0.00,,---,0.00,VWS V14.00,2013-06-27 22:24:00,
2013-06-27 18:28:00,81.0,70.3,29.63,NNW,331,3.0,18.0,70,0.00,,---,0.00,VWS V14.00,2013-06-27 22:28:00,
2013-06-27 18:29:00,80.9,70.6,29.64,NNW,343,5.0,9.0,71,0.00,,---,0.00,VWS V14.00,2013-06-27 22:29:00,
2013-06-27 18:31:00,80.9,70.6,29.64,NNW,337,5.0,9.0,71,0.00,,---,0.00,VWS V14.00,2013-06-27 22:31:00,
2013-06-27 18:34:00,81.0,70.7,29.64,North,360,10.0,10.0,71,0.00,,---,0.00,VWS V14.00,2013-06-27 22:34:00,
2013-06-27 18:35:00,80.9,70.6,29.64,North,355,6.0,10.0,71,0.00,,---,0.00,VWS V14.00,2013-06-27 22:35:00,
2013-06-27 18:36:00,80.9,70.6,29.64,NNW,329,5.0,11.0,71,0.00,,---,0.00,VWS V14.00,2013-06-27 22:36:00,
2013-06-27 18:37:00,80.9,71.0,29.64,NNW,337,5.0,11.0,72,0.00,,---,0.00,VWS V14.00,2013-06-27 22:37:00,
2013-06-27 18:41:00,81.1,71.2,29.64,NW,322,3.0,11.0,72,0.00,,---,0.00,VWS V14.00,2013-06-27 22:41:00,
2013-06-27 18:42:00,81.1,71.2,29.64,NW,322,3.0,11.0,72,0.00,,---,0.00,VWS V14.00,2013-06-27 22:42:00,
2013-06-27 18:47:00,81.9,72.0,29.64,NW,315,10.0,11.0,72,0.00,,---,0.00,VWS V14.00,2013-06-27 22:47:00,
2013-06-27 18:50:00,82.4,71.6,29.64,WNW,302,7.0,12.0,70,0.00,,---,0.00,VWS V14.00,2013-06-27 22:50:00,
2013-06-27 18:53:00,82.5,71.7,29.64,NW,326,11.0,15.0,70,0.00,,---,0.00,VWS V14.00,2013-06-27 22:53:00,
2013-06-27 18:55:00,82.4,71.6,29.64,WNW,286,5.0,15.0,70,0.00,,---,0.00,VWS V14.00,2013-06-27 22:55:00,
2013-06-27 18:57:00,82.4,71.6,29.64,West,271,6.0,15.0,70,0.00,,---,0.00,VWS V14.00,2013-06-27 22:57:00,
2013-06-27 18:59:00,82.4,71.6,29.64,NW,306,8.0,12.0,70,0.00,,---,0.00,VWS V14.00,2013-06-27 22:59:00,
2013-06-27 19:00:00,82.3,71.5,29.64,West,272,6.0,12.0,70,0.00,,---,0.00,VWS V14.00,2013-06-27 23:00:00,
2013-06-27 19:01:00,82.4,71.6,29.64,WNW,286,4.0,12.0,70,0.00,,---,0.00,VWS V14.00,2013-06-27 23:01:00,
2013-06-27 19:03:00,82.6,72.2,29.63,NW,315,3.0,12.0,71,0.00,,---,0.00,VWS V14.00,2013-06-27 23:03:00,
2013-06-27 19:04:00,82.6,72.2,29.63,NW,306,5.0,12.0,71,0.00,,---,0.00,VWS V14.00,2013-06-27 23:04:00,
2013-06-27 19:05:00,82.6,71.8,29.63,WNW,291,6.0,12.0,70,0.00,,---,0.00,VWS V14.00,2013-06-27 23:05:00,
2013-06-27 19:08:00,82.5,71.7,29.63,NW,311,9.0,14.0,70,0.00,,---,0.00,VWS V14.00,2013-06-27 23:08:00,
2013-06-27 19:09:00,82.4,71.6,29.63,WNW,290,6.0,14.0,70,0.00,,---,0.00,VWS V14.00,2013-06-27 23:09:00,
2013-06-27 19:10:00,82.3,71.5,29.63,West,261,7.0,14.0,70,0.00,,---,0.00,VWS V14.00,2013-06-27 23:10:00,
2013-06-27 19:12:00,82.3,71.5,29.63,NNW,348,9.0,14.0,70,0.00,,---,0.00,VWS V14.00,2013-06-27 23:12:00,
2013-06-27 19:15:00,82.3,71.5,29.63,WNW,289,3.0,14.0,70,0.00,,---,0.00,VWS V14.00,2013-06-27 23:15:00,
2013-06-27 19:17:00,82.4,71.6,29.63,WNW,302,4.0,14.0,70,0.00,,---,0.00,VWS V14.00,2013-06-27 23:17:00,
2013-06-27 19:18:00,82.4,71.6,29.63,WNW,301,6.0,14.0,70,0.00,,---,0.00,VWS V14.00,2013-06-27 23:18:00,
2013-06-27 19:19:00,82.4,71.6,29.63,NW,326,9.0,14.0,70,0.00,,---,0.00,VWS V14.00,2013-06-27 23:19:00,
2013-06-27 19:20:00,82.3,71.5,29.63,NW,325,7.0,14.0,70,0.00,,---,0.00,VWS V14.00,2013-06-27 23:20:00,
2013-06-27 19:24:00,81.6,71.3,29.63,NW,314,4.0,14.0,71,0.00,,---,0.00,VWS V14.00,2013-06-27 23:24:00,
2013-06-27 19:25:00,81.4,71.1,29.63,NW,314,2.0,14.0,71,0.00,,---,0.00,VWS V14.00,2013-06-27 23:25:00,
2013-06-27 19:28:00,81.1,71.2,29.63,NW,315,4.0,14.0,72,0.00,,---,0.00,VWS V14.00,2013-06-27 23:28:00,
2013-06-27 19:30:00,80.9,71.0,29.63,NW,323,5.0,7.0,72,0.00,,---,0.00,VWS V14.00,2013-06-27 23:30:00,
2013-06-27 19:31:00,80.8,70.9,29.63,NW,325,3.0,7.0,72,0.00,,---,0.00,VWS V14.00,2013-06-27 23:31:00,
2013-06-27 19:36:00,80.4,71.4,29.64,WNW,303,5.0,7.0,74,0.00,,---,0.00,VWS V14.00,2013-06-27 23:36:00,
2013-06-27 19:37:00,80.4,71.4,29.64,WNW,302,3.0,7.0,74,0.00,,---,0.00,VWS V14.00,2013-06-27 23:37:00,
2013-06-27 19:42:00,80.4,71.4,29.64,West,277,7.0,10.0,74,0.00,,---,0.00,VWS V14.00,2013-06-27 23:42:00,
2013-06-27 19:43:00,80.4,71.4,29.64,West,278,7.0,10.0,74,0.00,,---,0.00,VWS V14.00,2013-06-27 23:43:00,
2013-06-27 19:46:00,80.6,71.6,29.64,WNW,288,7.0,11.0,74,0.00,,---,0.00,VWS V14.00,2013-06-27 23:46:00,
2013-06-27 19:48:00,80.6,71.2,29.64,West,276,6.0,11.0,73,0.00,,---,0.00,VWS V14.00,2013-06-27 23:48:00,
2013-06-27 19:51:00,80.8,71.3,29.63,West,277,7.0,11.0,73,0.00,,---,0.00,VWS V14.00,2013-06-27 23:51:00,
2013-06-27 19:53:00,80.9,71.4,29.63,West,277,2.0,11.0,73,0.00,,---,0.00,VWS V14.00,2013-06-27 23:53:00,
2013-06-27 19:57:00,81.1,71.2,29.63,West,277,6.0,11.0,72,0.00,,---,0.00,VWS V14.00,2013-06-27 23:57:00,
2013-06-27 19:58:00,81.2,71.3,29.63,West,278,5.0,11.0,72,0.00,,---,0.00,VWS V14.00,2013-06-27 23:58:00,
2013-06-27 19:59:00,81.2,71.3,29.63,West,277,3.0,3.0,72,0.00,,---,0.00,VWS V14.00,2013-06-27 23:59:00,
2013-06-27 20:04:00,81.5,71.2,29.63,West,278,3.0,7.0,71,0.00,,---,0.00,VWS V14.00,2013-06-28 00:04:00,
2013-06-27 20:05:00,81.5,71.2,29.63,West,278,2.0,7.0,71,0.00,,---,0.00,VWS V14.00,2013-06-28 00:05:00,
2013-06-27 20:08:00,81.3,71.0,29.63,West,279,4.0,7.0,71,0.00,,---,0.00,VWS V14.00,2013-06-28 00:08:00,
2013-06-27 20:11:00,80.9,71.0,29.63,WNW,288,4.0,7.0,72,0.00,,---,0.00,VWS V14.00,2013-06-28 00:11:00,
2013-06-27 20:12:00,80.7,70.8,29.63,WNW,288,3.0,7.0,72,0.00,,---,0.00,VWS V14.00,2013-06-28 00:12:00,
2013-06-27 20:13:00,80.5,70.7,29.63,WNW,288,2.0,7.0,72,0.00,,---,0.00,VWS V14.00,2013-06-28 00:13:00,
2013-06-27 20:14:00,80.5,71.1,29.63,WNW,287,4.0,7.0,73,0.00,,---,0.00,VWS V14.00,2013-06-28 00:14:00,
2013-06-27 20:17:00,80.2,70.8,29.63,WNW,288,5.0,7.0,73,0.00,,---,0.00,VWS V14.00,2013-06-28 00:17:00,
2013-06-27 20:19:00,80.0,70.6,29.63,WNW,288,4.0,7.0,73,0.00,,---,0.00,VWS V14.00,2013-06-28 00:19:00,
2013-06-27 20:21:00,79.9,70.9,29.63,WNW,290,4.0,7.0,74,0.00,,---,0.00,VWS V14.00,2013-06-28 00:21:00,
2013-06-27 20:23:00,79.8,70.8,29.63,WNW,291,4.0,7.0,74,0.00,,---,0.00,VWS V14.00,2013-06-28 00:23:00,
2013-06-27 20:27:00,79.6,70.6,29.63,WNW,291,4.0,7.0,74,0.00,,---,0.00,VWS V14.00,2013-06-28 00:27:00,
2013-06-27 20:29:00,79.5,70.9,29.63,WNW,291,4.0,4.0,75,0.00,,---,0.00,VWS V14.00,2013-06-28 00:29:00,
2013-06-27 20:33:00,79.4,70.8,29.63,WNW,291,3.0,6.0,75,0.00,,---,0.00,VWS V14.00,2013-06-28 00:33:00,
2013-06-27 20:34:00,79.4,70.8,29.63,WNW,291,3.0,6.0,75,0.00,,---,0.00,VWS V14.00,2013-06-28 00:34:00,
2013-06-27 20:39:00,79.2,71.0,29.64,WNW,292,5.0,6.0,76,0.00,,---,0.00,VWS V14.00,2013-06-28 00:39:00,
2013-06-27 20:40:00,79.0,70.8,29.64,WNW,299,5.0,7.0,76,0.00,,---,0.00,VWS V14.00,2013-06-28 00:40:00,
2013-06-27 20:43:00,78.8,70.6,29.64,WNW,299,3.0,7.0,76,0.00,,---,0.00,VWS V14.00,2013-06-28 00:43:00,
2013-06-27 20:44:00,78.7,70.9,29.64,WNW,300,6.0,7.0,77,0.00,,---,0.00,VWS V14.00,2013-06-28 00:44:00,
2013-06-27 20:45:00,78.7,70.9,29.64,WNW,302,5.0,7.0,77,0.00,,---,0.00,VWS V14.00,2013-06-28 00:45:00,
2013-06-27 20:48:00,78.6,70.8,29.64,WNW,302,3.0,7.0,77,0.00,,---,0.00,VWS V14.00,2013-06-28 00:48:00,
2013-06-27 20:50:00,78.5,70.7,29.64,NW,315,6.0,7.0,77,0.00,,---,0.00,VWS V14.00,2013-06-28 00:50:00,
2013-06-27 20:51:00,78.4,70.6,29.64,NW,318,6.0,7.0,77,0.00,,---,0.00,VWS V14.00,2013-06-28 00:51:00,
2013-06-27 20:53:00,78.3,70.9,29.63,NW,319,4.0,7.0,78,0.00,,---,0.00,VWS V14.00,2013-06-28 00:53:00,
2013-06-27 20:56:00,78.1,70.7,29.63,NW,319,3.0,7.0,78,0.00,,---,0.00,VWS V14.00,2013-06-28 00:56:00,
2013-06-27 20:57:00,78.1,70.7,29.63,NW,319,2.0,7.0,78,0.00,,---,0.00,VWS V14.00,2013-06-28 00:57:00,
2013-06-27 20:58:00,78.0,70.6,29.62,NW,318,5.0,7.0,78,0.00,,---,0.00,VWS V14.00,2013-06-28 00:58:00,
2013-06-27 20:59:00,78.0,71.0,29.62,NW,319,2.0,4.0,79,0.00,,---,0.00,VWS V14.00,2013-06-28 00:59:00,
2013-06-27 21:02:00,78.0,71.0,29.62,NW,311,3.0,6.0,79,0.00,,---,0.00,VWS V14.00,2013-06-28 01:02:00,
2013-06-27 21:04:00,78.0,71.0,29.62,NW,311,3.0,6.0,79,0.00,,---,0.00,VWS V14.00,2013-06-28 01:04:00,
2013-06-27 21:05:00,78.0,71.0,29.62,NW,311,4.0,6.0,79,0.00,,---,0.00,VWS V14.00,2013-06-28 01:05:00,
2013-06-27 21:08:00,78.0,71.0,29.62,NW,311,3.0,6.0,79,0.00,,---,0.00,VWS V14.00,2013-06-28 01:08:00,
2013-06-27 21:09:00,77.9,70.9,29.62,NW,311,3.0,6.0,79,0.00,,---,0.00,VWS V14.00,2013-06-28 01:09:00,
2013-06-27 21:10:00,77.9,70.9,29.62,NW,311,3.0,6.0,79,0.00,,---,0.00,VWS V14.00,2013-06-28 01:10:00,
2013-06-27 21:14:00,77.7,70.7,29.62,NW,311,3.0,6.0,79,0.00,,---,0.00,VWS V14.00,2013-06-28 01:14:00,
2013-06-27 21:15:00,77.7,71.0,29.62,NW,311,1.0,6.0,80,0.00,,---,0.00,VWS V14.00,2013-06-28 01:15:00,
2013-06-27 21:16:00,77.6,70.9,29.62,NW,311,3.0,6.0,80,0.00,,---,0.00,VWS V14.00,2013-06-28 01:16:00,
2013-06-27 21:17:00,77.6,70.9,29.62,NW,311,2.0,6.0,80,0.00,,---,0.00,VWS V14.00,2013-06-28 01:17:00,
2013-06-27 21:20:00,77.5,70.8,29.62,NW,311,2.0,6.0,80,0.00,,---,0.00,VWS V14.00,2013-06-28 01:20:00,
2013-06-27 21:22:00,77.4,70.8,29.62,NW,311,0.0,6.0,80,0.00,,---,0.00,VWS V14.00,2013-06-28 01:22:00,
2013-06-27 21:23:00,77.4,70.8,29.62,NW,311,1.0,6.0,80,0.00,,---,0.00,VWS V14.00,2013-06-28 01:23:00,
2013-06-27 21:25:00,77.4,70.8,29.62,NW,311,0.0,6.0,80,0.00,,---,0.00,VWS V14.00,2013-06-28 01:25:00,
2013-06-27 21:28:00,77.3,71.0,29.62,NW,311,1.0,6.0,81,0.00,,---,0.00,VWS V14.00,2013-06-28 01:28:00,
2013-06-27 21:29:00,77.3,71.0,29.62,NW,311,2.0,3.0,81,0.00,,---,0.00,VWS V14.00,2013-06-28 01:29:00,
2013-06-27 21:30:00,77.2,70.9,29.62,NW,311,1.0,3.0,81,0.00,,---,0.00,VWS V14.00,2013-06-28 01:30:00,
2013-06-27 21:32:00,77.2,70.9,29.62,NW,311,2.0,4.0,81,0.00,,---,0.00,VWS V14.00,2013-06-28 01:32:00,
2013-06-27 21:35:00,77.1,70.8,29.62,NW,311,2.0,4.0,81,0.00,,---,0.00,VWS V14.00,2013-06-28 01:35:00,
2013-06-27 21:37:00,77.0,70.7,29.62,NW,311,0.0,4.0,81,0.00,,---,0.00,VWS V14.00,2013-06-28 01:37:00,
2013-06-27 21:38:00,77.0,70.7,29.62,NW,311,0.0,4.0,81,0.00,,---,0.00,VWS V14.00,2013-06-28 01:38:00,
2013-06-27 21:42:00,76.9,71.0,29.63,NW,311,2.0,4.0,82,0.00,,---,0.00,VWS V14.00,2013-06-28 01:42:00,
2013-06-27 21:43:00,76.9,71.0,29.62,NW,311,3.0,4.0,82,0.00,,---,0.00,VWS V14.00,2013-06-28 01:43:00,
2013-06-27 21:48:00,76.8,70.9,29.63,NW,311,0.0,4.0,82,0.00,,---,0.00,VWS V14.00,2013-06-28 01:48:00,
2013-06-27 21:49:00,76.7,70.8,29.63,NW,311,3.0,4.0,82,0.00,,---,0.00,VWS V14.00,2013-06-28 01:49:00,
2013-06-27 21:53:00,76.6,70.7,29.62,NW,311,2.0,5.0,82,0.00,,---,0.00,VWS V14.00,2013-06-28 01:53:00,
2013-06-27 21:55:00,76.6,71.1,29.63,NW,311,4.0,5.0,83,0.00,,---,0.00,VWS V14.00,2013-06-28 01:55:00,
2013-06-27 21:56:00,76.5,71.0,29.63,NW,311,3.0,5.0,83,0.00,,---,0.00,VWS V14.00,2013-06-28 01:56:00,
2013-06-27 21:58:00,76.5,71.0,29.63,NW,311,3.0,5.0,83,0.00,,---,0.00,VWS V14.00,2013-06-28 01:58:00,
2013-06-27 21:59:00,76.5,71.0,29.62,NW,311,4.0,4.0,83,0.00,,---,0.00,VWS V14.00,2013-06-28 01:59:00,
2013-06-27 22:01:00,76.5,71.3,29.62,NW,313,3.0,5.0,84,0.00,,---,0.00,VWS V14.00,2013-06-28 02:01:00,
2013-06-27 22:02:00,76.4,71.2,29.62,NW,313,2.0,5.0,84,0.00,,---,0.00,VWS V14.00,2013-06-28 02:02:00,
2013-06-27 22:04:00,76.4,71.2,29.62,NW,314,5.0,5.0,84,0.00,,---,0.00,VWS V14.00,2013-06-28 02:04:00,
2013-06-27 22:07:00,76.3,71.1,29.62,NW,315,4.0,6.0,84,0.00,,---,0.00,VWS V14.00,2013-06-28 02:07:00,
2013-06-27 22:08:00,76.2,71.4,29.62,NW,317,2.0,6.0,85,0.00,,---,0.00,VWS V14.00,2013-06-28 02:08:00,
2013-06-27 22:10:00,76.2,71.4,29.62,NW,318,2.0,6.0,85,0.00,,---,0.00,VWS V14.00,2013-06-28 02:10:00,
2013-06-27 22:12:00,76.1,71.3,29.62,NW,318,2.0,6.0,85,0.00,,---,0.00,VWS V14.00,2013-06-28 02:12:00,
2013-06-27 22:15:00,76.1,71.3,29.62,NW,319,4.0,6.0,85,0.00,,---,0.00,VWS V14.00,2013-06-28 02:15:00,
2013-06-27 22:16:00,76.1,71.3,29.62,NW,319,3.0,6.0,85,0.00,,---,0.00,VWS V14.00,2013-06-28 02:16:00,
2013-06-27 22:17:00,76.0,71.2,29.62,NW,319,3.0,6.0,85,0.00,,---,0.00,VWS V14.00,2013-06-28 02:17:00,
2013-06-27 22:20:00,76.0,71.2,29.62,NW,319,4.0,6.0,85,0.00,,---,0.00,VWS V14.00,2013-06-28 02:20:00,
2013-06-27 22:21:00,75.9,71.1,29.62,NW,319,3.0,6.0,85,0.00,,---,0.00,VWS V14.00,2013-06-28 02:21:00,
2013-06-27 22:23:00,75.8,71.0,29.62,NW,319,5.0,6.0,85,0.00,,---,0.00,VWS V14.00,2013-06-28 02:23:00,
2013-06-27 22:26:00,75.6,71.1,29.62,NW,319,2.0,6.0,86,0.00,,---,0.00,VWS V14.00,2013-06-28 02:26:00,
2013-06-27 22:28:00,75.5,71.0,29.62,NW,319,4.0,6.0,86,0.00,,---,0.00,VWS V14.00,2013-06-28 02:28:00,
2013-06-27 22:32:00,75.4,70.9,29.62,NW,319,3.0,5.0,86,0.00,,---,0.00,VWS V14.00,2013-06-28 02:32:00,
2013-06-27 22:34:00,75.3,71.2,29.62,NW,319,2.0,5.0,87,0.00,,---,0.00,VWS V14.00,2013-06-28 02:34:00,
2013-06-27 22:35:00,75.2,71.1,29.62,NW,319,1.0,5.0,87,0.00,,---,0.00,VWS V14.00,2013-06-28 02:35:00,
2013-06-27 22:39:00,75.0,70.9,29.63,NW,319,4.0,5.0,87,0.00,,---,0.00,VWS V14.00,2013-06-28 02:39:00,
2013-06-27 22:41:00,74.9,70.8,29.63,NW,319,2.0,5.0,87,0.00,,---,0.00,VWS V14.00,2013-06-28 02:41:00,
2013-06-27 22:44:00,74.8,71.0,29.63,NW,319,2.0,5.0,88,0.00,,---,0.00,VWS V14.00,2013-06-28 02:44:00,
2013-06-27 22:47:00,74.7,70.9,29.63,NW,319,3.0,5.0,88,0.00,,---,0.00,VWS V14.00,2013-06-28 02:47:00,
2013-06-27 22:48:00,74.7,70.9,29.63,NW,319,3.0,5.0,88,0.00,,---,0.00,VWS V14.00,2013-06-28 02:48:00,
2013-06-27 22:49:00,74.6,70.8,29.63,NW,319,3.0,5.0,88,0.00,,---,0.00,VWS V14.00,2013-06-28 02:49:00,
2013-06-27 22:54:00,74.6,70.8,29.63,NW,319,3.0,5.0,88,0.00,,---,0.00,VWS V14.00,2013-06-28 02:54:00,
2013-06-27 22:55:00,74.6,70.8,29.63,NW,319,3.0,5.0,88,0.00,,---,0.00,VWS V14.00,2013-06-28 02:55:00,
2013-06-27 22:56:00,74.6,70.8,29.63,NW,319,4.0,5.0,88,0.00,,---,0.00,VWS V14.00,2013-06-28 02:56:00,
2013-06-27 23:00:00,74.6,70.8,29.62,NW,319,2.0,4.0,88,0.00,,---,0.00,VWS V14.00,2013-06-28 03:00:00,
2013-06-27 23:01:00,74.6,70.8,29.62,NW,319,4.0,5.0,88,0.00,,---,0.00,VWS V14.00,2013-06-28 03:01:00,
2013-06-27 23:03:00,74.6,71.2,29.62,NW,319,3.0,5.0,89,0.00,,---,0.00,VWS V14.00,2013-06-28 03:03:00,
2013-06-27 23:05:00,74.6,71.2,29.62,NW,320,3.0,6.0,89,0.00,,---,0.00,VWS V14.00,2013-06-28 03:05:00,
2013-06-27 23:06:00,74.6,71.2,29.62,NW,320,5.0,6.0,89,0.00,,---,0.00,VWS V14.00,2013-06-28 03:06:00,
2013-06-27 23:07:00,74.6,71.2,29.62,NNW,328,4.0,6.0,89,0.00,,---,0.00,VWS V14.00,2013-06-28 03:07:00,
2013-06-27 23:09:00,74.6,71.2,29.62,NNW,331,2.0,6.0,89,0.00,,---,0.00,VWS V14.00,2013-06-28 03:09:00,
2013-06-27 23:11:00,74.5,71.1,29.62,NNW,332,3.0,6.0,89,0.00,,---,0.00,VWS V14.00,2013-06-28 03:11:00,
2013-06-27 23:12:00,74.5,71.1,29.62,NNW,332,3.0,6.0,89,0.00,,---,0.00,VWS V14.00,2013-06-28 03:12:00,
2013-06-27 23:14:00,74.5,71.1,29.61,NNW,331,1.0,6.0,89,0.00,,---,0.00,VWS V14.00,2013-06-28 03:14:00,
2013-06-27 23:16:00,74.5,71.1,29.61,NNW,331,1.0,6.0,89,0.00,,---,0.00,VWS V14.00,2013-06-28 03:16:00,
2013-06-27 23:17:00,74.5,70.7,29.61,NNW,332,4.0,6.0,88,0.00,,---,0.00,VWS V14.00,2013-06-28 03:17:00,
2013-06-27 23:20:00,74.4,70.6,29.61,NNW,332,3.0,6.0,88,0.00,,---,0.00,VWS V14.00,2013-06-28 03:20:00,
2013-06-27 23:22:00,74.3,70.8,29.61,NNW,332,3.0,6.0,89,0.00,,---,0.00,VWS V14.00,2013-06-28 03:22:00,
2013-06-27 23:23:00,74.2,70.8,29.61,NNW,331,2.0,6.0,89,0.00,,---,0.00,VWS V14.00,2013-06-28 03:23:00,
2013-06-27 23:27:00,74.0,70.6,29.61,NNW,332,4.0,6.0,89,0.00,,---,0.00,VWS V14.00,2013-06-28 03:27:00,
2013-06-27 23:28:00,73.9,70.5,29.61,NNW,331,3.0,6.0,89,0.00,,---,0.00,VWS V14.00,2013-06-28 03:28:00,
2013-06-27 23:32:00,73.8,70.4,29.61,NNW,332,3.0,5.0,89,0.00,,---,0.00,VWS V14.00,2013-06-28 03:32:00,
2013-06-27 23:33:00,73.7,70.3,29.61,NNW,332,3.0,5.0,89,0.00,,---,0.00,VWS V14.00,2013-06-28 03:33:00,
2013-06-27 23:35:00,73.6,70.2,29.61,NNW,331,2.0,5.0,89,0.00,,---,0.00,VWS V14.00,2013-06-28 03:35:00,
2013-06-27 23:38:00,73.5,70.1,29.61,NNW,331,3.0,5.0,89,0.00,,---,0.00,VWS V14.00,2013-06-28 03:38:00,
2013-06-27 23:41:00,73.3,70.2,29.60,NNW,332,3.0,5.0,90,0.00,,---,0.00,VWS V14.00,2013-06-28 03:41:00,
2013-06-27 23:43:00,73.3,70.2,29.60,NNW,332,4.0,5.0,90,0.00,,---,0.00,VWS V14.00,2013-06-28 03:43:00,
2013-06-27 23:45:00,73.2,70.1,29.60,NNW,332,2.0,7.0,90,0.00,,---,0.00,VWS V14.00,2013-06-28 03:45:00,
2013-06-27 23:46:00,73.1,70.0,29.60,NNW,331,3.0,7.0,90,0.00,,---,0.00,VWS V14.00,2013-06-28 03:46:00,
2013-06-27 23:48:00,73.1,70.0,29.60,NNW,331,4.0,7.0,90,0.00,,---,0.00,VWS V14.00,2013-06-28 03:48:00,
2013-06-27 23:49:00,73.1,70.0,29.60,NNW,332,3.0,7.0,90,0.00,,---,0.00,VWS V14.00,2013-06-28 03:49:00,
2013-06-27 23:50:00,73.0,69.9,29.60,NNW,332,3.0,7.0,90,0.00,,---,0.00,VWS V14.00,2013-06-28 03:50:00,
2013-06-27 23:52:00,73.0,69.9,29.61,NNW,332,4.0,7.0,90,0.00,,---,0.00,VWS V14.00,2013-06-28 03:52:00,
2013-06-27 23:54:00,72.9,69.8,29.61,ENE,57,5.0,7.0,90,0.00,,---,0.00,VWS V14.00,2013-06-28 03:54:00,
2013-06-27 23:55:00,72.9,69.8,29.61,ENE,59,4.0,7.0,90,0.00,,---,0.00,VWS V14.00,2013-06-28 03:55:00,
2013-06-27 23:57:00,72.8,69.7,29.61,ENE,59,4.0,7.0,90,0.00,,---,0.00,VWS V14.00,2013-06-28 03:57:00,
2013-06-27 23:58:00,72.8,69.7,29.61,ENE,57,5.0,6.0,90,0.00,,---,0.00,VWS V14.00,2013-06-28 03:58:00,